     2.00           OBSERVATION DATA    G (GPS)             RINEX VERSION / TYPE
teqc 1998Oct7 Victoria Andreatta 19981203 22:37:43UTC       PGM / RUN BY / DATE
Linux 2.0.30|PentPro|gcc|Linux|486/DX+                      COMMENT
????                                                        MARKER NAME
???                                                         OBSERVER / AGENCY
0 TURBOROGUE 96.03.24                                       REC # / TYPE / VERS
unknown unknown                                             ANT # / TYPE
 -1286097.4412 -4719390.9471  4082052.6457                  APPROX POSITION XYZ
        0.0000        0.0000        0.0000                  ANTENNA: DELTA H/E/N
     1     1                                                WAVELENGTH FACT L1/2
     5    L1    L2    C1    P2    P1                        # / TYPES OF OBSERV
SNR is mapped to RINEX snr flag value [1,4-9]               COMMENT
SNR: >316 >100 >31.6 >10 >3.2 >0 bad=0                      COMMENT
L1 & L2: 9 8 7 6 5 4 1                                      COMMENT
  1998    12     2     0     0    0.000000      GPS         TIME OF FIRST OBS
                                                            END OF HEADER
 98 12  2  0  0  0.0000000  0  8G15G19G31G13G 7G 2G18G27
  -1048482.64048   -816997.05544  23968634.4444   23968640.7564
 -17372966.30949 -13537340.13845  21154725.1324   21154727.3904
  -7628192.92549  -5944009.93044  22775125.5874   22775126.6054
 -14644490.62649 -11411265.43144  21695933.0784   21695934.1554
  -1346803.91149  -1049453.33344  23931509.0094   23931514.6264
 -13882490.84849 -10817494.65344  21953003.3484   21953006.4214
   2407814.91845                  24671787.0334
 -22088611.44249 -17211871.80245  20416467.4574   20416469.1054
 98 12  2  0  0 30.0000000  0  8G15G19G31G13G 7G 2G18G27
  -1127510.69849   -878577.17244  23953595.7764   23953599.1204
 -17320211.55649 -13496232.52245  21164764.3484   21164766.6134
  -7538138.77349  -5873837.83944  22792262.0604   22792264.1104
 -14600711.27649 -11377151.63444  21704264.2334   21704264.9474
  -1449389.96049  -1129390.32244  23911987.3844   23911992.8414
 -13926091.65349 -10851469.23644  21944706.2314   21944709.3684
   2522659.01245                  24693641.8694
 -22119176.73749 -17235688.87545  20410651.1784   20410652.7504
 98 12  2  0  1  0.0000000  0  8G15G19G31G13G 7G 2G18G27
  -1206290.07549   -939963.52744  23938604.4044   23938608.1944
 -17267033.46949 -13454795.03445  21174883.9264   21174886.2674
  -7447731.04649  -5803390.22944  22809466.0574   22809467.4484
 -14556370.56649 -11342600.41744  21712701.7174   21712702.6444
  -1551827.84349  -1209211.85144  23892493.4674   23892500.0494
 -13969526.12549 -10885314.21244  21936440.9694   21936443.9854
   2637521.74445                  24715500.2084
 -22149337.48749 -17259190.72045  20404911.6934   20404913.3044
 98 12  2  0  1 30.0000000  0  8G15G19G31G13G 7G 2G18G27
  -1284817.43849  -1001153.48944  23923660.6584   23923663.1334
 -17213430.24149 -13413026.26145  21185084.2574   21185086.6094
  -7356997.43649  -5732688.67744  22826732.1254   22826733.8274
 -14511466.64049 -11307610.32944  21721246.4754   21721247.4724
  -1654108.34949  -1288910.76044  23873029.9854   23873038.1764
 -14012810.20349 -10919041.98544  21928204.2214   21928207.0804
   2752405.15246                  24737362.1034
 -22179094.48949 -17282377.95345  20399248.9964   20399250.7854
 98 12  2  0  2  0.0000000  0  7G15G19G31G13G 7G 2G27
  -1363089.55649  -1062144.59244  23908765.9064   23908769.0874
 -17159406.65149 -13370929.92944  21195364.3154   21195366.9574
  -7265967.35349  -5661756.11544  22844054.9324   22844056.0224
 -14466027.96949 -11272203.56244  21729893.2024   21729894.1914
  -1756238.43449  -1368492.44044  23853594.9694   23853602.7194
 -14055943.44949 -10952652.23844  21919996.3724   21919998.6914
 -22208447.65649 -17305250.51445  20393663.0664   20393665.0154
 98 12  2  0  2 30.0000000  0  7G15G19G31G13G 7G 2G27
  -1441103.31149  -1122934.37344  23893920.3514   23893925.3904
 -17104973.09649 -13328514.14644  21205722.5004   21205724.9634
  -7174650.89849  -5590600.39844  22861431.6524   22861433.1374
 -14420074.31549 -11236395.51044  21738638.0644   21738638.9954
  -1858221.63049  -1447959.67844  23834187.8034   23834195.1674
 -14098927.52749 -10986146.24744  21911816.4774   21911819.1634
 -22237386.81349 -17327800.46445  20388156.1784   20388157.9734
 98 12  2  0  3  0.0000000  0  7G15G19G31G13G 7G 2G27
  -1518855.51249  -1183520.39744  23879124.6014   23879128.0404
 -17050143.09849 -13285789.45744  21216156.2964   21216158.5014
  -7083050.70349  -5519223.58644  22878862.4134   22878864.1514
 -14373605.18249 -11200185.78944  21747481.0274   21747481.7264
  -1960049.89049  -1527306.17444  23814810.4244   23814816.4554
 -14141761.24249 -11019523.09844  21903665.5064   21903668.0134
 -22265898.68549 -17350017.46645  20382730.5104   20382732.2734
 98 12  2  0  3 30.0000000  0  7G15G19G31G13G 7G 2G27
  -1596342.69249  -1243899.87644  23864379.0784   23864382.2824
 -16994930.06249 -13242766.29244  21226662.8934   21226665.4394
  -6991148.43349  -5447611.39844  22896350.5774   22896352.0324
 -14326622.96449 -11163576.26644  21756421.2464   21756422.2944
  -2061716.22749  -1606526.50844  23795463.7194   23795469.9834
 -14184426.63949 -11052768.79044  21895546.5494   21895549.1734
 -22293980.49049 -17371899.34945  20377386.5664   20377388.1544
 98 12  2  0  4  0.0000000  0  7G15G19G31G13G 7G 2G27
  -1673561.62049  -1304070.33744  23849685.0144   23849688.6124
 -16939346.49049 -13199454.40044  21237240.1264   21237242.3754
  -6898916.54749  -5375742.36644  22913901.4624   22913903.6694
 -14279142.45649 -11126578.46544  21765456.3774   21765457.3164
  -2163228.24849  -1685626.58144  23776146.4694   23776151.9834
 -14226923.79849 -11085883.38844  21887459.5084   21887462.2434
 -22321629.09549 -17393443.67645  20372125.2904   20372126.9644
 98 12  2  0  4 30.0000000  0  7G15G19G31G13G 7G 2G27
  -1750509.02049  -1364029.25344  23835042.1544   23835045.0964
 -16883393.74249 -13155854.83944  21247887.7674   21247890.1534
  -6806343.20149  -5303607.25744  22931517.5994   22931519.5464
 -14231152.02249 -11089183.31444  21774588.5214   21774589.7174
  -2264587.45549  -1764607.57044  23756858.7754   23756863.4464
 -14269259.98849 -11118872.56244  21879403.1744   21879406.0954
 -22348841.55949 -17414648.15345  20366946.8174   20366948.4704
 98 12  2  0  5  0.0000000  0  7G15G19G31G13G 7G 2G27
  -1827181.44449  -1423773.83844  23820451.2804   23820454.6884
 -16827054.94549 -13111954.46844  21258608.6724   21258610.9354
  -6713432.25249  -5231209.08544  22949198.0874   22949199.9704
 -14182640.04749 -11051381.76744  21783820.0264   21783820.9784
  -2365791.00749  -1843467.27844  23737600.4274   23737605.4414
 -14311422.70349 -11151726.55845  21871379.8894   21871382.5864
 -22375624.34549 -17435517.81845  20361850.0444   20361851.6894
 98 12  2  0  5 30.0000000  0  7G15G19G31G13G 7G 2G27
  -1903575.72349  -1483301.69544  23805913.9834   23805915.2654
 -16770315.76049 -13067742.10444  21269405.7454   21269407.9974
  -6620192.67949  -5158554.84244  22966941.2474   22966943.2484
 -14133617.26449 -11013182.17944  21793148.8774   21793149.9184
  -2466833.32849  -1922201.32644  23718372.6654   23718377.6714
 -14353414.83949 -11184447.63545  21863389.0564   21863391.9444
 -22401981.46249 -17456055.79145  20356834.5704   20356836.0304
 98 12  2  0  6  0.0000000  0  7G15G19G31G13G 7G 2G27
  -1979688.75649  -1542610.40944  23791430.2334   23791432.9464
 -16713166.87449 -13023210.48844  21280280.5304   21280283.1334
  -6526646.57749  -5085661.74844  22984742.4974   22984744.7264
 -14084089.52349 -10974589.11844  21802573.5634   21802574.6184
  -2567716.33749  -2000811.25244  23699175.3314   23699180.3964
 -14395238.63449 -11217037.54145  21855430.1954   21855432.9834
 -22427909.82849 -17476259.67345  20351900.6104   20351901.9394
 98 12  2  0  6 30.0000000  0  7G15G19G31G13G 7G 2G27
  -2055517.18449  -1601697.36144  23777000.4484   23777004.0234
 -16655603.67749 -12978356.04544  21291234.6814   21291237.4604
  -6432825.13249  -5012554.10044  23002595.9694   23002597.2674
 -14034054.20149 -10935600.54644  21812094.8164   21812096.2414
  -2668424.87549  -2079285.22844  23680010.9084   23680016.3534
 -14436882.55849 -11249487.28845  21847505.4574   21847508.3834
 -22453409.07549 -17496129.17645  20347048.1944   20347049.7234
 98 12  2  0  7  0.0000000  0  7G15G19G31G13G 7G 2G27
  -2131057.72249  -1660559.96144  23762625.9044   23762630.2544
 -16597632.87349 -12933183.98244  21302266.0264   21302268.4414
  -6338736.94349  -4939238.61044  23020500.3684   23020501.5734
 -13983516.09549 -10896220.19544  21821711.8914   21821713.5724
  -2768942.83549  -2157610.69044  23660882.9974   23660888.3204
 -14478344.56149 -11281795.28145  21839615.5584   21839618.1884
 -22478481.03749 -17515665.73045  20342277.0954   20342278.5864
 98 12  2  0  7 30.0000000  0  7G15G19G31G13G 7G 2G27
  -2206307.11049  -1719195.69544  23748306.5524   23748309.6884
 -16539267.67749 -12887704.59944  21313372.4304   21313374.6624
  -6244375.07749  -4865709.86444  23038457.0194   23038459.1824
 -13932477.41149 -10856449.78644  21831424.4204   21831425.7674
  -2869267.88549  -2235785.86144  23641791.1594   23641796.4894
 -14519639.91849 -11313973.42345  21831757.2354   21831759.9364
 -22503120.63249 -17534865.37245  20337588.3754   20337589.8804
 98 12  2  0  8  0.0000000  0  7G15G19G31G13G 7G 2G27
  -2281261.98649  -1777601.94644  23734042.3854   23734047.3224
 -16480522.05849 -12841928.77644  21324551.4664   21324553.8184
  -6149731.98749  -4791961.98144  23056466.8754   23056468.6074
 -13880929.72949 -10816282.74644  21841233.5894   21841234.7404
  -2969412.84049  -2313820.69244  23622733.9214   23622739.0104
 -14560762.94349 -11346017.27945  21823931.7244   21823934.4774
 -22527330.30649 -17553730.00645  20332981.3624   20332982.9474
 98 12  2  0  8 30.0000000  0  7G15G19G31G13G 7G 2G27
  -2355919.18149  -1835776.24144  23719835.1674   23719838.2264
 -16421407.10049 -12795865.15644  21335800.4694   21335803.0184
  -6054798.84649  -4717988.08944  23074531.9444   23074533.8674
 -13828858.41949 -10775707.68044  21851142.5784   21851143.4794
  -3069383.87149  -2391719.99044  23603709.8704   23603714.5984
 -14601724.72249 -11377935.48745  21816136.8134   21816139.8644
 -22551105.04449 -17572255.73245  20328457.1244   20328458.7104
 98 12  2  0  9  0.0000000  0  7G15G19G31G13G 7G 2G27
  -2430275.41749  -1893716.00344  23705685.5224   23705688.6274
 -16361923.45649 -12749514.24144  21347119.7794   21347122.3824
  -5959549.47649  -4643767.78644  23092657.5504   23092658.1514
 -13776256.90449 -10734719.47444  21861152.4424   21861153.5174
  -3169199.12549  -2469497.93844  23584715.5214   23584720.2294
 -14642538.90749 -11409738.68745  21808370.2044   21808373.1524
 -22574433.65249 -17590433.82445  20324018.0154   20324019.3634
 98 12  2  0  9 30.0000000  0  7G15G19G31G13G 7G 2G27
  -2504327.67149  -1951418.90244  23691593.4544   23691595.3224
 -16302071.70549 -12702876.50044  21358509.3404   21358511.9854
  -5863988.95349  -4569305.03144  23110841.8224   23110844.0824
 -13723128.93249 -10693321.04844  21871262.2674   21871263.2244
  -3268873.08749  -2547165.77244  23565747.7864   23565751.0434
 -14683196.83549 -11441420.13445  21800633.2914   21800636.2114
 -22597294.74649 -17608247.61745  20319667.6414   20319669.0124
 98 12  2  0 10  0.0000000  0  7G15G19G31G13G 7G 2G27
  -2578072.52949  -2008882.26444  23677560.2754   23677563.4884
 -16241849.43949 -12655950.03844  21369969.2294   21369971.7064
  -5768123.91949  -4494604.99244  23129084.1204   23129086.4024
 -13669475.45449 -10651513.14144  21881472.3704   21881473.2534
  -3368401.57549  -2624720.23244  23546807.7584   23546811.8054
 -14723690.57649 -11472973.64245  21792927.4374   21792930.4414
 -22619674.05449 -17625685.99545  20315408.9424   20315410.2634
 98 12  2  0 10 30.0000000  0  7G15G19G31G13G 7G 2G27
  -2651506.63249  -2066103.48544  23663586.6824   23663590.8004
 -16181241.77749 -12608723.27544  21381502.5874   21381505.0534
  -5671965.34249  -4419676.21744  23147382.1924   23147383.9554
 -13615302.89749 -10609300.75544  21891781.3034   21891781.7144
  -3467762.54349  -2702144.15144  23527899.5014   23527905.2474
 -14764035.23049 -11504410.98045  21785250.0924   21785253.0204
 -22641556.67249 -17642737.34045  20311244.8114   20311245.8654
 98 12  2  0 11  0.0000000  0  7G15G19G31G13G 7G 2G27
  -2724627.04549  -2123080.26344  23649672.2734   23649674.6704
 -16120228.37949 -12561180.36744  21393112.8644   21393115.4894
  -5575529.49949  -4344531.38844  23165733.8764   23165735.0154
 -13560636.97249 -10566703.92144  21902183.5454   21902183.7824
  -3566935.36349  -2779421.48144  23509027.5484   23509032.7994
 -14804225.78049 -11535728.23645  21777602.0644   21777604.9614
 -22662953.03349 -17659409.78345  20307173.0614   20307174.2204
 98 12  2  0 11 30.0000000  0  7G15G19G31G13G 7G 2G27
  -2797430.45849  -2179810.03644  23635817.8344   23635821.0594
 -16058796.22949 -12513311.15644  21404802.7584   21404805.7084
  -5478840.10549  -4269188.97444  23184133.2194   23184134.9514
 -13505488.55249 -10523731.12244  21912677.3614   21912678.2454
  -3665901.22249  -2856537.53144  23490194.6124   23490199.6214
 -14844250.41249 -11566916.20745  21769985.4964   21769988.2574
 -22683873.32849 -17675711.26545  20303191.8944   20303193.2184
 98 12  2  0 12  0.0000000  0  7G15G19G31G13G 7G 2G27
  -2869913.38749  -2236290.10544  23622024.7644   23622028.6134
 -15996936.81049 -12465108.99444  21416574.3274   21416577.2134
  -5381905.20649  -4193655.27444  23202579.2224   23202580.2724
 -13449864.31449 -10480387.55344  21923262.0064   21923262.6994
  -3764643.91249  -2933479.69644  23471404.4864   23471409.2094
 -14884115.52649 -11597979.88145  21762399.1994   21762402.1644
 -22704340.05049 -17691659.31145  20299297.3064   20299298.6614
 98 12  2  0 12 30.0000000  0  7G15G19G31G13G 7G 2G27
  -2942072.90849  -2292518.16644  23608293.2574   23608296.0774
 -15934650.26649 -12416574.00644  21428427.0804   21428429.5504
  -5284736.74049  -4117939.56544  23221069.7784   23221071.5854
 -13393776.97949 -10436683.12444  21933935.3074   21933936.3184
  -3863166.75249  -3010250.54644  23452656.2574   23452660.1024
 -14923810.20949 -11628910.74945  21754845.5774   21754848.5124
 -22724372.20649 -17707268.73545  20295485.4014   20295486.6704
 98 12  2  0 13  0.0000000  0  7G15G19G31G13G 7G 2G27
  -3013905.68149  -2348491.66344  23594624.2304   23594626.0744
 -15871950.97949 -12367717.41044  21440358.6534   21440360.9614
  -5187321.35349  -4042031.44344  23239607.0904   23239609.1314
 -13337227.26649 -10392618.41144  21944696.7014   21944697.4224
  -3961485.86049  -3086862.64644  23433947.1764   23433951.9044
 -14963315.02349 -11659693.67445  21747328.0064   21747330.7004
 -22743981.61349 -17722548.74845  20291753.7624   20291755.0524
 98 12  2  0 13 30.0000000  0  7G15G19G31G13G 7G 2G27
  -3085408.38049  -2404207.94144  23581017.8314   23581019.5274
 -15808865.15549 -12318559.62344  21452363.7044   21452365.7924
  -5089646.19749  -3965920.90344  23258193.7334   23258196.1174
 -13280202.06449 -10348183.17944  21955548.2024   21955548.9524
  -4059615.46249  -3163327.08444  23415273.5264   23415277.2794
 -15002632.79149 -11690330.84445  21739845.8414   21739848.2734
 -22763164.54849 -17737496.44645  20288103.4224   20288104.7654
 98 12  2  0 14  0.0000000  0  7G15G19G31G13G 7G 2G27
  -3156578.05649  -2459664.73944  23567474.5944   23567477.6544
 -15745406.53949 -12269111.34444  21464439.5124   21464441.6824
  -4991701.83849  -3889600.60244  23276831.9034   23276834.0664
 -13222696.94849 -10303373.98744  21966490.9614   21966492.0524
  -4157558.37549  -3239646.05444  23396635.9284   23396640.4484
 -15041768.36649 -11720826.04445  21732398.8104   21732401.1384
 -22781915.70749 -17752107.69645  20284535.1414   20284536.5144
 98 12  2  0 14 30.0000000  0  7G15G19G31G13G 7G 2G27
  -3227411.56649  -2514859.60644  23553995.3894   23553996.8364
 -15681581.74949 -12219377.74244  21476585.0064   21476587.0084
  -4893473.17249  -3813058.76144  23295524.4234   23295527.0594
 -13164706.23649 -10258186.40644  21977526.1454   21977526.9404
  -4255313.87549  -3315818.98244  23378033.6244   23378038.8864
 -15080721.07249 -11751178.74645  21724986.5684   21724988.6494
 -22800217.35649 -17766368.67545  20281052.3094   20281053.4944
 98 12  2  0 15  0.0000000  0  7G15G19G31G13G 7G 2G27
  -3297905.79949  -2569790.11844  23540580.7914   23540582.4694
 -15617401.86449 -12169367.45144  21488797.8664   21488799.9694
  -4794953.48449  -3736290.15644  23314272.4704   23314274.2204
 -13106229.45249 -10212620.06644  21988654.0874   21988655.0544
  -4352878.76649  -3391843.40244  23359467.5264   23359471.5744
 -15119511.00249 -11781404.60845  21717604.8594   21717607.1414
 -22818059.07849 -17780271.27045  20277657.0894   20277658.3654
 98 12  2  0 15 30.0000000  0  7G15G19G31G13G 7G 2G27
  -3368057.39149  -2624453.60244  23527231.2564   23527234.6264
 -15552861.85749 -12119076.53544  21501079.5994   21501081.5954
  -4696166.75349  -3659313.45644  23333071.1404   23333072.5994
 -13047264.13849 -10166673.05644  21999875.1444   21999875.5294
  -4450239.47349  -3467708.73144  23340940.0424   23340944.7174
 -15158140.83549 -11811505.71745  21710253.7774   21710256.3734
 -22835428.68949 -17793805.98845  20274351.8044   20274353.0074
 98 12  2  0 16  0.0000000  0  7G15G19G31G13G 7G 2G27
  -3437863.17949  -2678847.65944  23513947.7004   23513948.9914
 -15487947.32549 -12068493.77544  21513432.3564   21513434.5404
  -4597125.90749  -3582138.75744  23351918.1054   23351920.0754
 -12987817.07349 -10120350.65544  22011187.7914   22011188.3884
  -4547387.01749  -3543407.97044  23322453.3974   23322458.0224
 -15196605.49249 -11841478.11945  21702934.2574   21702936.5944
 -22852314.62349 -17806963.81645  20271138.5844   20271139.9054
 98 12  2  0 16 30.0000000  0  8G15G19G31G13G 7G 2G26G27
  -3507320.22549  -2732969.93844  23500730.6494   23500733.3764
 -15422660.86549 -12017621.21544  21525855.9314   21525858.4494
  -4497836.87849  -3504770.66244  23370811.9084   23370814.2664
 -12927890.59949 -10073654.69044  22022591.3824   22022591.9684
  -4644324.13949  -3618943.25644  23304006.7844   23304011.0044
 -15234905.47049 -11871322.19945  21695645.9004   21695648.3854
        -0.82756        -0.17054  24255627.0644   24255630.1594
 -22868723.52449 -17819749.93345  20268015.7824   20268017.2794
 98 12  2  0 17  0.0000000  0  8G15G19G31G13G 7G 2G26G27
  -3576425.12449  -2786817.79744  23487580.3234   23487583.4334
 -15357002.17849 -11966458.59344  21538350.4074   21538352.3674
  -4398317.83449  -3427223.34944  23389749.2564   23389751.6774
 -12867480.93749 -10026582.22044  22034086.7034   22034087.4964
  -4741057.74949  -3694319.94944  23285598.6234   23285603.6144
 -15273048.64449 -11901044.09345  21688387.4704   21688389.9894
    -67472.01646    -52575.01244  24242788.4944   24242791.0684
 -22884667.58549 -17832173.83745  20264981.7154   20264983.3194
 98 12  2  0 17 30.0000000  0  8G15G19G31G13G 7G 2G26G27
  -3645174.93049  -2840388.94544  23474497.0374   23474498.9334
 -15290958.39049 -11914995.88244  21550918.0044   21550920.0884
  -4298572.43649  -3349499.64844  23408730.2344   23408732.4864
 -12806585.77249  -9979131.43244  22045674.4864   22045675.6384
  -4837579.85649  -3769531.85744  23267231.0554   23267235.7114
 -15311016.38949 -11930629.28745  21681162.4604   21681165.0634
   -134529.51346   -104827.47944  24230027.4364   24230030.5254
 -22900137.11849 -17844227.98045  20262038.0414   20262039.4614
 98 12  2  0 18  0.0000000  0  8G15G19G31G13G 7G 2G26G27
  -3713566.42449  -2893680.88644  23461482.2654   23461485.4614
 -15224530.78749 -11863234.10344  21563559.2324   21563561.0904
  -4198585.13249  -3271587.45344  23427756.9874   23427759.5894
 -12745218.36749  -9931312.66044  22057352.1794   22057352.9754
  -4933883.15549  -3844573.25144  23248905.2154   23248910.0594
 -15348814.52249 -11960082.31545  21673969.6314   21673972.0334
   -201172.58946   -156756.95744  24217344.2914
 -22915137.62149 -17855916.64845  20259183.5264   20259184.8554
 98 12  2  0 18 30.0000000  0  8G15G19G31G13G 7G 2G26G27
  -3781596.64949  -2946691.31644  23448536.1154   23448538.9744
 -15157732.60749 -11811183.55644  21576270.4264   21576272.3564
  -4098348.88749  -3193481.27544  23446831.5754   23446833.2584
 -12683381.00049  -9883127.68644  22069119.4454   22069120.5224
  -5029967.46549  -3919444.00844  23230620.6284   23230624.9784
 -15386447.84249 -11989406.92145  21666808.1864   21666810.8044
   -267414.55746   -208373.96444  24204738.4894
 -22929674.06349 -17867243.71245  20256417.2724   20256418.6824
 98 12  2  0 19  0.0000000  0  8G15G19G31G13G 7G 2G26G27
  -3849262.67349  -2999417.94044  23435659.5674   23435662.9904
 -15090563.47849 -11758843.97344  21589052.1504   21589053.9974
  -3997876.69549  -3115191.24044  23465950.9314   23465952.9004
 -12621091.32349  -9834590.26244  22080972.9604   22080973.5704
  -5125825.00349  -3994138.04344  23212379.4744   23212383.1754
 -15423912.94949 -12018600.45245  21659678.6374   21659681.1054
   -333265.06646   -259685.90644  24192206.7254   24192215.9094
 -22943733.25849 -17878198.89245  20253741.9444   20253743.4794
 98 12  2  0 50 30.0000000  0  4G 2G19G13G27
        -0.33359         0.47756  21062944.5204   21062947.7044
        -0.66959        -0.25254  22319072.3374   22319075.8444
        -1.20459        -0.42554  22770237.0114   22770238.6954
        -0.23459         0.06055  20066516.4534   20066519.3864
 98 12  2  0 51  0.0000000  0  5G 7G 2G27G19G13
         0.21859         1.08354  21932952.9834   21932957.0664
    -26638.09149    -20756.18546  21057875.5244   21057878.7284
     18874.73549     14707.84445  20070108.2554   20070111.0634
     89133.69749     69455.08644  22336034.0844   22336038.1264
     86141.47149     67123.74144  22786629.5154   22786631.4304
 98 12  2  0 51 30.0000000  0  7G 7G 2G27G15G26G19G13
    -78341.33849    -61044.23044  21918044.9514   21918049.1864
    -53105.49549    -41380.10446  21052838.9914   21052842.1354
     38299.15049     29843.76545  20073804.6734   20073807.2974
        -0.55859         0.53854  22562072.7504   22562076.8834
         0.14759         1.40054  23351310.6144   23351313.7034
    178565.64449    139142.30844  22353052.2994   22353056.3644
    172558.79649    134461.91644  22803074.1894   22803076.1634
 98 12  2  0 52  0.0000000  0  7G 7G 2G27G15G26G19G13
   -156363.24049   -121840.46144  21903198.0164   21903202.4574
    -79398.60949    -61868.20946  21047835.7264   21047838.7904
     58246.69049     45387.32145  20077600.6114   20077603.1264
    -37353.42649    -29105.54744  22554964.7914   22554969.3544
    -34650.22749    -26998.82744  23344717.0924   23344720.1384
    268295.61749    209061.75044  22370127.3544   22370131.0274
    259262.97449    202023.61444  22819573.2244   22819574.3994
 98 12  2  0 52 30.0000000  0  7G 7G 2G27G15G26G19G13
   -234069.94649   -182391.08444  21888410.8484   21888415.4984
   -105504.58249    -82210.49046  21042867.9234   21042870.9524
     78701.17449     61325.89545  20081493.0384   20081495.4744
    -74163.93749    -57789.01544  22547959.8664   22547964.1074
    -68793.48049    -53603.91644  23338219.7284   23338222.6294
    358325.91049    279215.22944  22387259.2604   22387262.8984
    346274.38249    269824.70844  22836130.9104   22836132.6874
 98 12  2  0 53  0.0000000  0  7G 7G 2G27G15G26G19G13
   -311456.36849   -242692.13444  21873684.6534   21873688.7474
   -131416.67149   -102401.69346  21037936.9584   21037939.8374
     99665.49649     77661.74845  20085482.4214   20085484.7314
   -110429.93049    -86048.18844  22541058.5004   22541062.7644
   -102423.44349    -79809.02744  23331819.7444   23331822.9954
    448659.03249    349604.67444  22404449.1744   22404453.5784
    433580.66649    337855.57844  22852744.9084   22852747.1434
 98 12  2  0 53 30.0000000  0  7G 7G 2G27G15G26G19G13
   -388520.02049   -302741.68144  21859020.1214   21859023.8734
   -157135.68849   -122442.45246  21033042.7604   21033045.8134
    121149.14249     94402.27145  20089570.5314   20089572.8844
   -146149.42849   -113881.51444  22534260.9064   22534265.4044
   -135540.30049   -105614.32844  23325517.4544   23325521.0174
    539301.04649    420234.81144  22421697.6254   22421701.5254
    521173.73049    406109.91544  22869413.1364   22869414.8974
 98 12  2  0 54  0.0000000  0  7G 7G 2G27G15G26G19G13
   -465272.79749   -362548.99144  21844414.5084   21844418.0814
   -182675.47049   -142343.54646  21028182.6564   21028185.7064
    143157.82249    111551.91145  20093758.6134   20093761.3234
   -181320.75349   -141287.69944  22527568.0014   22527572.2724
   -168141.05249   -131017.44144  23319313.6244   23319317.1544
    630254.87849    491107.90044  22439005.7674   22439009.7264
    609038.84149    474576.23844  22886133.1374   22886134.1004
 98 12  2  0 54 30.0000000  0  7G 7G 2G27G15G26G19G13
   -541703.43149   -422105.27644  21829870.1074   21829873.6734
   -208041.32449   -162109.11346  21023355.7964   21023358.9014
    165715.32949    129129.20445  20098051.0604   20098053.8384
   -215941.45749   -168264.82644  22520979.8884   22520984.3374
   -200211.62849   -156007.44144  23313210.7504   23313214.0354
    721518.22949    562222.16944  22456372.7984   22456376.8474
    697157.95749    543240.49044  22902901.4854   22902903.2234
 98 12  2  0 55  0.0000000  0  7G 7G 2G27G15G26G19G13
   -617800.33649   -481401.51344  21815389.2874   21815393.1644
   -233232.98549   -181738.94346  21018561.9364   21018565.0124
    188828.22549    147139.26845  20102449.1884   20102452.0844
   -250009.50849   -194811.31544  22514497.2024   22514501.3804
   -231752.72249   -180584.87144  23307208.3894   23307211.9874
    813092.32949    633578.59344  22473798.9134   22473802.5124
    785514.30749    612089.59244  22919714.7984   22919717.8264
 98 12  2  0 55 30.0000000  0  7G 7G 2G27G15G26G19G13
   -693557.17549   -540432.76044  21800973.3724   21800976.8204
   -258254.47249   -201236.17045  21013800.4164   21013803.4894
    212491.36849    165578.09745  20106952.2014   20106954.9874
   -283523.20249   -220925.84644  22508119.9814   22508123.9054
   -262781.56949   -204763.13644  23301303.8714   23301306.9694
    904971.60849    705172.80944  22491282.9014   22491287.0044
    874109.34049    681124.68744  22936574.0774   22936576.1694
 98 12  2  0 56  0.0000000  0  7G 7G 2G27G15G26G19G13
   -768959.97249   -599188.13144  21786624.7744   21786628.1384
   -283108.56749   -220602.96145  21009070.6984   21009073.6694
    236698.78849    184441.03745  20111558.5754   20111561.2874
   -316480.68149   -246606.95744  22501848.5094   22501852.8334
   -293307.75249   -228549.71244  23295494.6224   23295498.0974
    997142.26749    776994.07244  22508822.1774   22508825.4224
    962936.24949    750340.46744  22953477.6544   22953480.4134
 98 12  2  0 56 30.0000000  0  7G 7G 2G27G15G26G19G13
   -844002.03049   -657662.41044  21772344.6774   21772348.3314
   -307783.39949   -239830.07145  21004375.2634   21004378.2304
    261441.84949    203721.35145  20116267.0014   20116269.7854
   -348880.14449   -271853.25644  22495683.1074   22495687.5094
   -323341.42349   -251952.50344  23289779.4134   23289782.9474
   1089581.44849    849024.56444  22526412.7484   22526416.7144
   1052006.62749    819745.96744  22970427.5934   22970429.5814
 98 12  2  0 57  0.0000000  0  7G 7G 2G27G15G26G19G13
   -918693.41849   -715863.43644  21758131.4034   21758134.9664
   -332280.34549   -258918.57145  20999713.5044   20999716.3744
    286714.24649    223414.12945  20121076.3474   20121078.9464
   -380719.31949   -296662.96544  22489624.1144   22489627.6184
   -352882.11349   -274971.17744  23284157.6554   23284161.9994
   1182278.66149    921256.11444  22544052.3584   22544056.3534
   1141333.56149    889351.38244  22987426.1744   22987428.4614
 98 12  2  0 57 30.0000000  0  7G 7G 2G27G15G26G19G13
   -993051.99249   -773805.13144  21743981.4534   21743985.2934
   -356608.66649   -277875.67345  20995083.9924   20995087.0134
    312528.96749    243529.50145  20125988.6944   20125991.1824
   -411996.54849   -321034.79844  22483672.1634   22483676.5014
   -381902.94049   -297584.75144  23278635.5364   23278638.7434
   1275223.19149    993680.39544  22561738.8424   22561743.1624
   1230924.26649    959162.32944  23004474.6214   23004476.7034
 98 12  2  0 58  0.0000000  0  7G 7G 2G27G15G26G19G13
  -1067094.27149   -831500.36244  21729891.4354   21729895.6104
   -380767.14049   -296700.42745  20990486.7924   20990489.8144
    338894.92549    264074.41545  20131005.8434   20131008.4364
   -442709.94049   -344967.27844  22477827.9924   22477831.5624
   -410373.90849   -319769.85744  23273217.6234   23273220.7854
   1368420.33549   1066301.52944  22579473.8704   22579477.4574
   1320780.99549   1029180.55844  23021573.5254   23021575.7244
 98 12  2  0 58 30.0000000  0  7G 7G 2G27G15G26G19G13
  -1140833.04949   -888959.09844  21715859.4274   21715863.0224
   -404757.44949   -315394.14245  20985921.5384   20985924.5764
    365820.34149    285055.27045  20136129.4434   20136132.0624
   -472857.83549   -368459.11644  22472091.2024   22472094.4604
   -438268.75349   -341506.03444  23267909.7284   23267912.9234
   1461879.51249   1139126.83644  22597258.7114   22597263.0064
   1410906.58249   1099408.29144  23038723.8104   23038726.1564
 98 12  2  0 59  0.0000000  0  7G 7G 2G27G15G26G19G13
  -1214268.68349   -946181.61544  21701885.1624   21701888.6564
   -428581.90649   -333958.62445  20981387.8524   20981390.6804
    393312.63849    306477.85145  20141361.1474   20141363.5634
   -502438.44949   -391508.92344  22466462.4124   22466464.9114
   -465575.98849   -362784.32844  23262713.2284   23262716.2924
   1555618.34349   1212170.06344  22615096.5384   22615100.2694
   1501281.80549   1169830.54644  23055921.3764   23055923.8724
 98 12  2  0 59 30.0000000  0  7G 7G 2G27G15G26G19G13
  -1287401.87049  -1003168.46244  21687968.3564   21687971.5224
   -452238.81749   -352392.55145  20976886.2834   20976888.7294
    421361.59149    328334.19245  20146698.7144   20146701.0164
   -531449.74749   -414115.08844  22460941.7724   22460944.8924
   -492298.51049   -383606.99844  23257628.0904   23257631.4014
   1649643.67849   1285436.54044  22632988.9744   22632993.1794
   1591893.31649   1240436.92244  23073163.7814   23073166.7494
 98 12  2  1  0  0.0000000  0  7G 7G 2G27G15G26G19G13
  -1360204.56149  -1059897.77644  21674114.4104   21674117.4764
   -475724.71849   -370693.22545  20972417.0944   20972419.4464
    449957.29449    350616.56945  20152140.1944   20152142.6734
   -559890.17049   -436276.41744  22455529.6724   22455532.3694
   -518462.81449   -403994.69444  23252649.0754   23252652.4874
   1743946.36749   1358919.13744  22650934.3424   22650938.9454
   1682726.11249   1311215.71944  23090448.1584   23090451.9974
 98 12  2  1  0 30.0000000  0  7G 7G 2G27G15G26G19G13
  -1432654.00149  -1116351.82644  21660327.6194   21660330.8004
   -499035.83349   -388857.70245  20967981.0384   20967983.6484
    479094.55849    373320.93145  20157685.0284   20157687.2514
   -587757.93849   -457991.52644  22450226.6004   22450229.6034
   -544106.12549   -423976.43844  23247768.9964   23247771.9064
   1838523.64449   1432615.69344  22668931.7524   22668935.7534
   1773772.04149   1382160.59444  23107773.2064   23107776.3724
 98 12  2  1  1  0.0000000  0  7G 7G 2G27G15G26G19G13
  -1504746.47549  -1172527.71944  21646608.5994   21646612.4404
   -522167.62249   -406882.44745  20963579.1834   20963581.8534
    508765.07249    396440.81045  20163331.0804   20163333.4424
   -615051.40149   -479259.11744  22445032.9604   22445034.8404
   -569260.04449   -443576.84644  23242981.8474   23242986.3474
   1933369.45949   1506521.50044  22686980.1104   22686984.4254
   1865017.61149   1453261.04844  23125136.8184   23125140.0264
 98 12  2  1  1 30.0000000  0  7G 7G 2G27G15G26G19G13
  -1576472.35649  -1228417.95044  21632959.5154   21632963.5324
   -545110.41449   -424759.92345  20959213.2544   20959216.0344
    538968.97249    419976.31645  20169078.6754   20169081.0384
   -641769.05549   -500078.03544  22439948.6214   22439950.8184
   -593929.72549   -462799.91544  23238287.1024   23238291.9344
   2028475.49649   1580630.06044  22705078.2374   22705083.2494
   1956459.62549   1524514.56544  23142537.7634   23142541.2054
 98 12  2  1  2  0.0000000  0  7G 7G 2G27G15G26G19G13
  -1647834.04849  -1284024.40344  21619379.5884   21619384.1734
   -567848.52449   -442477.90545  20954886.2304   20954889.1084
    569717.17149    443935.95945  20174929.9184   20174932.3104
   -667909.17049   -520446.92344  22434974.2784   22434977.1184
   -618122.89549   -481651.69544  23233683.3614   23233688.7094
   2123840.35849   1654940.29244  22723225.5264   22723230.8234
   2048088.97149   1595914.06044  23159974.5284   23159977.3444
 98 12  2  1  2 30.0000000  0  7G 7G 2G27G15G26G19G13
  -1718860.20649  -1339369.40144  21605863.7904   21605868.4434
   -590379.77849   -460034.70145  20950598.6074   20950601.5324
    601004.47049    468315.68345  20180883.6464   20180886.1484
   -693469.90849   -540364.33944  22430110.2364   22430113.3104
   -641822.70249   -500119.03544  23229173.7864   23229178.5424
   2219473.92949   1729459.91944  22741424.3594   22741428.6554
   2139907.69649   1667461.12644  23177447.3244   23177450.5504
 98 12  2  1  3  0.0000000  0  7G 7G 2G27G15G26G19G13
  -1789569.88849  -1394467.79944  21592408.1344   21592412.8164
   -612705.98549   -477431.72145  20946350.0924   20946352.8444
    632831.02649    493115.60345  20186939.9034   20186942.6264
   -718449.96549   -559829.28444  22425356.5624   22425359.6754
   -664995.38749   -518175.63744  23224764.2494   23224767.7644
   2315357.77149   1804174.56044  22759670.3934   22759674.8004
   2231914.20649   1739154.51044  23194955.9254   23194958.5134
 98 12  2  1  3 30.0000000  0  7G 7G 2G27G15G26G19G13
  -1859969.92649  -1449324.91544  21579011.4424   21579015.4534
   -634826.28249   -494668.28845  20942140.8794   20942143.4104
    665193.32849    518332.98145  20193098.2084   20193100.8534
   -742847.86749   -578840.59144  22420713.4984   22420716.8744
   -687622.07149   -535806.94044  23220458.6244   23220460.5884
   2411493.67149   1879085.61144  22777964.3544   22777969.8044
   2324116.72549   1811000.62944  23212501.4614   23212503.7194
 98 12  2  1  4  0.0000000  0  7G 7G 2G27G15G26G19G13
  -1930070.28649  -1503948.51944  21565671.8974   21565675.5284
   -656769.14549   -511766.59345  20937965.2514   20937967.9724
    698081.19449    543959.89945  20199356.6524   20199359.2514
   -766662.12949   -597397.12144  22416181.3214   22416184.5204
   -709695.94749   -553008.24044  23216257.8714   23216259.9234
   2507885.09749   1954195.77844  22796307.2494   22796311.9014
   2416530.07949   1883011.02744  23230087.3304   23230090.4374
 98 12  2  1  4 30.0000000  0  7G 7G 2G27G15G26G19G13
  -1999846.80849  -1558319.78444  21552394.1024   21552397.3864
   -678554.89449   -528742.47245  20933819.4794   20933822.2814
    731488.72349    569991.74745  20205713.7574   20205716.3754
   -789891.20949   -615497.66444  22411760.8604   22411764.5284
   -731205.65449   -569767.78744  23212164.2724   23212166.2484
   2604534.86449   2029507.26244  22814699.2304   22814702.9664
   2509174.27049   1955201.30644  23247717.1564   23247719.3454
 98 12  2  1  5  0.0000000  0  7G 7G 2G27G15G26G19G13
  -2069271.98949  -1612417.27644  21539182.8754   21539186.0584
   -700179.83849   -545593.05045  20929704.3554   20929707.1504
    765424.46149    596435.17845  20212171.3334   20212174.0384
   -812533.29149   -633140.83344  22407452.3174   22407456.2954
   -752161.19949   -586096.78644  23208176.5264   23208179.8524
   2701452.39649   2105027.39944  22833142.1814   22833145.9804
   2602051.24949   2027572.97544  23265391.0084   23265394.1654
 98 12  2  1  5 30.0000000  0  7G 7G 2G27G15G26G19G13
  -2138326.77549  -1666226.14844  21526042.1074   21526045.3154
   -721641.80149   -562316.62845  20925620.3774   20925623.2564
    799891.02349    623292.24045  20218730.1334   20218733.0904
   -834587.10749   -650325.63844  22403255.6984   22403258.8994
   -772573.67249   -602002.58444  23204292.3354   23204295.6934
   2798656.54349   2180770.86144  22851639.8454   22851642.9374
   2695164.12449   2100128.45344  23283109.8104   23283111.9374
 98 12  2  1  6  0.0000000  0  7G 7G 2G27G15G26G19G13
  -2206990.27449  -1719730.11644  21512975.7354   21512978.9204
   -742936.33349   -578909.74345  20921568.1734   20921570.9524
    834899.94949    650571.93145  20225392.0644   20225395.0464
   -856051.24449   -667051.06444  22399171.0644   22399174.1644
   -792439.25349   -617482.20944  23200512.4204   23200514.7824
   2896145.39949   2256736.18144  22870191.4524   22870195.4054
   2788502.83949   2172859.91444  23300871.5714   23300873.8374
 98 12  2  1  6 30.0000000  0  7G 7G 2G27G15G26G19G13
  -2275259.08149  -1772926.54044  21499984.4304   21499987.7214
   -764026.66149   -595343.73345  20917554.6424   20917557.3064
    870461.95549    678282.58945  20232159.4594   20232162.1854
   -876923.96449   -683315.25044  22395199.2924   22395202.9924
   -811768.02349   -632543.53844  23196834.3004   23196837.3114
   2993907.78549   2332914.64444  22888795.3224   22888798.6894
   2882050.76249   2245754.38544  23318673.1204   23318674.9444
 98 12  2  1  8  0.0000000  0  2G13G27
        -0.56259         0.37154  23372277.5114   23372278.7874
        -0.26759         0.83555  20253094.1174   20253096.8914
 98 12  2  1  8 30.0000000  0  6G 7G27G15G26G19G13
        -0.62359        -0.10854  21448717.5824   21448721.0374
     37778.18449     29438.59445  20260283.2274   20260285.8554
        -0.38759         0.34854  22380440.5394   22380445.5384
         0.07859         1.00454  23183121.8534   23183124.9774
        -0.38359        -0.10454  22963684.7374   22963687.9094
     94216.48249     73416.25244  23390206.4024   23390208.4374
 98 12  2  1  9  0.0000000  0  6G 7G27G15G26G19G13
    -66477.52049    -51800.24444  21436067.7114   21436070.9154
     76115.23449     59311.62945  20267578.4864   20267581.1044
    -17897.37349    -13945.33544  22377034.9754   22377039.4334
    -16691.81849    -13005.61244  23179946.0414   23179947.8494
     98976.06149     77124.36644  22982519.1164   22982522.4524
    188591.87449    146955.50444  23408165.5774   23408167.0084
 98 12  2  1  9 30.0000000  0  6G 7G15G27G26G19G13
   -132616.34149   -103336.94645  21423481.9884   21423485.1464
    -35195.42949    -27424.30844  22373743.4444   22373747.0634
    115012.75349     89621.39045  20274980.3634   20274983.0424
    -32831.46049    -25581.88444  23176874.9214   23176876.6434
    198185.02949    154430.00144  23001397.8194   23001401.3464
    283134.08149    220624.75044  23426156.2124   23426157.9434
 98 12  2  1 10  0.0000000  0  7G 7G15G 2G27G26G19G13
   -198417.73049   -154610.71345  21410960.1294   21410963.5614
    -51893.21549    -40435.54244  22370565.8954   22370569.1724
        -0.63459        -0.18255  20890551.5944   20890555.1204
    154464.27349    120362.84245  20282487.8374   20282490.6794
    -48416.51349    -37726.03644  23173909.4694   23173911.9834
    297631.24549    231920.51744  23020322.0604   23020326.3404
    377858.19249    294435.73844  23444181.4154   23444183.5344
 98 12  2  1 10 30.0000000  0  7G 7G15G 2G27G26G19G13
   -263877.71149   -205618.44445  21398503.0944   21398506.7474
    -67989.57849    -52978.13244  22367502.9664   22367506.6054
    -19552.44949    -15235.33845  20886831.0364   20886834.3754
    194460.45949    151528.71445  20290098.8914   20290101.8414
    -63445.23549    -49436.67244  23171049.7464   23171051.7044
    397306.02649    309589.13944  23039289.5054   23039292.0404
    472758.98949    368384.40844  23462240.5044   23462242.0174
 98 12  2  1 11  0.0000000  0  7G 7G15G 2G27G26G19G13
   -328997.11249   -256360.78345  21386111.1334   21386115.0044
    -83483.08949    -65050.96944  22364554.7794   22364558.4094
    -38931.21849    -30335.65645  20883143.4784   20883146.6744
    234985.49149    183106.67345  20297810.6964   20297813.2124
    -77939.13949    -60730.56444  23168291.3214   23168294.5104
    497212.37749    387438.21444  23058301.1724   23058304.0574
    567830.93249    442466.42844  23480331.8484   23480333.5674
 98 12  2  1 11 30.0000000  0  7G 7G15G 2G27G26G19G13
   -393765.60649   -306829.69345  21373786.0264   21373789.7134
    -98373.06249    -76653.52144  22361721.2704   22361724.7594
    -58127.50349    -45293.78245  20879490.4984   20879493.6454
    276019.65749    215081.35045  20305619.0344   20305621.8404
    -91907.52149    -71614.96444  23165632.9814   23165635.4134
    597337.55249    465457.79244  23077354.2814   23077358.0794
    663067.01449    516676.36244  23498454.6134   23498456.8264
 98 12  2  1 12  0.0000000  0  7G 7G15G 2G27G26G19G13
   -458162.79349   -357009.27245  21361531.7464   21361535.4764
   -112658.13449    -87784.72544  22359003.0694   22359006.5404
    -77144.13649    -60111.92045  20875871.7134   20875875.0284
    317558.29249    247449.12245  20313523.6314   20313526.2384
   -105359.99149    -82097.35644  23163072.6704   23163076.3754
    697685.51949    543650.97744  23096449.7904   23096452.9294
    758454.03549    591003.89644  23516606.2654   23516609.1024
 98 12  2  1 12 30.0000000  0  7G 7G15G26G 2G27G19G13
   -522193.29049   -406903.11445  21349347.3994   21349350.7544
   -126337.00749    -98443.56144  22356400.0264   22356404.1574
   -118290.50649    -92173.03744  23160611.7074   23160615.3924
    -95980.86649    -74789.87445  20872287.2124   20872290.4784
    359612.70849    280218.80645  20321526.3844   20321528.7384
    798268.91249    622027.61444  23115590.3864   23115593.8464
    853981.51049    665440.88244  23534784.4924   23534786.6724
 98 12  2  1 13  0.0000000  0  7G 7G15G26G 2G27G19G13
   -585860.95949   -456514.23445  21337232.0234   21337235.2234
   -139408.72849   -108629.29744  22353912.6304   22353915.7224
   -130689.50149   -101834.53944  23158252.6754   23158255.8854
   -114632.19049    -89323.35345  20868738.1584   20868741.3034
    402183.12749    313390.57145  20329627.4244   20329629.8194
    899084.24149    700584.98644  23134774.9194   23134779.6824
    949651.76149    739989.11844  23552990.0634   23552992.6234
 98 12  2  1 13 30.0000000  0  7G 7G15G26G 2G27G19G13
   -649168.50549   -505844.74045  21325185.0304   21325188.1944
   -151872.35649   -118341.18544  22351541.1264   22351544.3604
   -142537.80349   -111066.93744  23155997.9354   23156001.7154
   -133091.11849   -103706.91645  20865225.6454   20865228.6154
    445284.54149    346976.09345  20337829.2354   20337831.7524
   1000122.92649    779316.39944  23154002.1694   23154005.3634
   1045455.10549    814641.06744  23571220.9774   23571223.1544
 98 12  2  1 14  0.0000000  0  7G 7G15G26G 2G27G19G13
   -712125.05649   -554901.74145  21313204.8344   21313207.9564
   -163726.84049   -127578.42144  22349285.4784   22349288.6974
   -153832.59349   -119868.01644  23153848.6364   23153851.8514
   -151355.57749   -117938.94245  20861750.2114   20861752.9514
    488925.05049    380981.68545  20346133.7084   20346136.5254
   1101402.92049    858235.85044  23173274.9484   23173278.7484
   1141394.62149    889399.11744  23589477.7714   23589480.3044
 98 12  2  1 14 30.0000000  0  7G 7G15G26G 2G27G19G13
   -774742.12149   -603694.20845  21301288.7924   21301292.0364
   -174971.21849   -136340.24544  22347145.6394   22347148.8004
   -164564.17149   -128230.24944  23151805.9854   23151809.5134
   -169421.40849   -132016.19645  20858312.1914   20858314.9774
    533101.97349    415405.26445  20354540.3734   20354543.0484
   1202911.23649    937333.23044  23192591.3754   23192595.7904
   1237476.02349    964267.74344  23607761.4244   23607763.3114
 98 12  2  1 15  0.0000000  0  7G 7G15G26G 2G27G19G13
   -837000.93649   -652207.52145  21289441.2664   21289444.6864
   -185604.51249   -144625.91044  22345122.2704   22345125.6264
   -174739.26349   -136158.84944  23149870.1844   23149873.3814
   -187284.41749   -145935.40345  20854912.7404   20854915.8974
    577805.85949    450239.46445  20363047.3764   20363049.8434
   1304630.77649   1016595.18244  23211947.9834   23211951.9304
   1333689.73049   1039239.44044  23626070.4064   23626073.5944
 98 12  2  1 15 30.0000000  0  7G 7G15G26G 2G27G19G13
   -898888.57849   -700431.61145  21277664.2524   21277667.6724
   -195625.98949   -152434.82444  22343215.4924   22343218.5174
   -184360.40749   -143655.79644  23148039.0764   23148042.9954
   -204943.00049   -159695.31745  20851552.3744   20851555.4984
    623042.41149    485488.72545  20371655.7104   20371658.0104
   1406588.64949   1096042.85044  23231349.9944   23231354.3564
   1430030.37449   1114310.06544  23644403.2514   23644404.5944
 98 12  2  1 16  0.0000000  0  7G 7G15G26G 2G27G19G13
   -960393.43049   -748357.42345  21265960.2004   21265963.8344
   -205034.64149   -159766.21644  22341425.0544   22341427.6294
   -193431.94449   -150724.49344  23146312.6124   23146316.2964
   -222403.01249   -173300.50345  20848230.0234   20848233.1154
    668809.88349    521151.68545  20380364.8454   20380367.4964
   1508790.76449   1175680.82544  23250798.7474   23250802.9274
   1526510.49449   1189489.36144  23662762.4694   23662765.0294
 98 12  2  1 16 30.0000000  0  7G 7G15G26G 2G27G19G13
  -1021513.59749   -795983.48345  21254329.2844   21254332.7524
   -213829.62849   -166619.42944  22339751.2614   22339754.4664
   -201961.28249   -157370.68044  23144690.4224   23144693.3854
   -239662.13449   -186749.15145  20844945.7274   20844948.8624
    715114.09049    557232.87545  20389176.2314   20389178.7894
   1611220.53249   1255496.17444  23270290.3974   23270294.9904
   1623120.22249   1264769.65544  23681146.4124   23681149.6214
 98 12  2  1 17  0.0000000  0  7G 7G15G26G 2G27G19G13
  -1082240.26549   -843302.91845  21242773.4594   21242776.8244
   -222009.95249   -172993.68844  22338194.3214   22338197.1894
   -209960.25849   -163603.59744  23143168.2704   23143170.5464
   -256712.37049   -200035.03145  20841700.9354   20841704.1214
    761966.13749    593740.96245  20398091.7404   20398094.1594
   1713889.54749   1335497.95844  23289827.4374   23289831.0344
   1719847.19349   1340141.30644  23699552.9414   23699556.5184
 98 12  2  1 17 30.0000000  0  7G 7G15G26G 2G27G19G13
  -1142591.17649   -890329.55445  21231289.0824   21231292.4614
   -229574.88449   -178888.42144  22336754.7034   22336757.8434
   -217419.48749   -169415.90044  23141748.2254   23141751.3304
   -273562.30649   -213164.83345  20838494.3814   20838497.5904
    809373.13849    630681.48645  20407113.0694   20407115.7514
   1816796.49249   1415685.14544  23309409.8264   23309415.2554
   1816695.51549   1415607.53344  23717982.7124   23717984.8334
 98 12  2  1 18  0.0000000  0  7G 7G15G26G 2G27G19G13
  -1202582.28249   -937075.82045  21219872.9704   21219876.5224
   -236523.75149   -184303.06744  22335432.4004   22335435.6034
   -224348.46649   -174815.20844  23140429.4134   23140432.5624
   -290216.78449   -226142.32845  20835325.2514   20835328.4314
    857321.83749    668044.11545  20416237.2504   20416240.0814
   1919904.41649   1496028.93944  23329030.5404   23329034.3114
   1913665.42849   1491168.50444  23736435.6564   23736436.8124
 98 12  2  1 18 30.0000000  0  7G 7G15G26G 2G27G19G13
  -1262220.28349   -983546.93745  21208524.4594   21208527.6704
   -242855.84849   -189237.16644  22334227.4334   22334230.5244
   -230748.36749   -179802.05744  23139211.2094   23139215.3984
   -306672.73849   -238965.13345  20832193.9244   20832196.7614
    905806.81449    705824.61445  20425463.6064   20425466.7174
   2023204.15249   1576522.19944  23348687.7394   23348690.9034
   2010748.21649   1566817.41944  23754910.1974   23754911.7774
 98 12  2  1 19  0.0000000  0  7G 7G15G26G19G 2G27G13
  -1321497.48049  -1029736.91145  21197244.4464   21197247.6544
   -248570.31549   -193689.97844  22333139.9084   22333143.0934
   -236610.44848   -184369.86944  23138095.3754   23138099.3834
   2126692.23549   1657162.23344  23368380.7474   23368385.9234
   -322941.71549   -251642.24145  20829098.2194   20829100.8714
    954818.76949    744015.74045  20434790.3744   20434793.4304
   2107953.75649   1642561.99744  23773407.8214   23773408.9124
 98 12  2  1 19 30.0000000  0  7G 7G15G26G19G 2G27G13
  -1380418.10649  -1075649.03944  21186032.2624   21186035.4314
   -253666.20949   -197660.78644  22332170.1214   22332173.5884
   -241936.83049   -188520.26144  23137082.1624   23137085.4894
   2230364.39749   1737945.72044  23388108.9594   23388112.1184
   -339034.92749   -264182.39145  20826035.6994   20826038.4554
   1004335.35349    782600.08745  20444213.3394   20444216.0844
   2205294.81849   1718412.15244  23791931.2144   23791933.7184
 98 12  2  1 20  0.0000000  0  7G 7G15G26G19G 2G27G13
  -1438966.70749  -1121271.27745  21174890.6264   21174893.8924
   -258143.09249   -201149.24944  22331318.1844   22331321.6474
   -246733.18849   -192257.62944  23136170.1554   23136173.2024
   2334216.96949   1818869.73844  23407871.4344   23407875.9194
   -354945.84349   -276580.49045  20823007.7904   20823010.7544
   1054352.59249    821574.56445  20453731.3154   20453733.7454
   2302761.65149   1794360.30144  23810478.6644   23810482.3724
 98 12  2  1 20 30.0000000  0  7G 7G15G26G19G 2G27G13
  -1497134.24649  -1166596.58845  21163821.6424   21163824.8624
   -262000.12249   -204154.70744  22330584.1504   22330587.3894
   -250992.22249   -195576.31944  23135359.3524   23135362.2694
   2438259.40249   1899941.73644  23427670.1434   23427673.6464
   -370675.08749   -288837.02245  20820014.5604   20820017.5754
   1104884.87449    860950.36545  20463347.1794   20463349.8944
   2400345.49049   1870399.63544  23829048.2434   23829051.5754
 98 12  2  1 21  0.0000000  0  7G 7G15G26G19G 2G27G13
  -1554922.11749  -1211626.05345  21152824.8504   21152828.0924
   -265237.07949   -206677.00444  22329968.0874   22329971.3104
   -254716.28849   -198478.15144  23134650.7744   23134653.2414
   2542493.97149   1981163.42844  23447505.7994   23447509.5214
   -386229.24649   -300957.12645  20817054.7514   20817057.6394
   1155932.99149    900728.11045  20473061.1684   20473064.0024
   2498037.09549   1946522.94044  23847638.3184   23847641.1374
 98 12  2  1 21 30.0000000  0  7G 7G15G26G19G 2G27G13
  -1612337.18949  -1256365.02145  21141898.9464   21141902.4854
   -267853.28249   -208715.58244  22329470.3414   22329473.8414
   -257911.54549   -200967.92144  23134042.7274   23134045.4184
   2646922.74949   2062536.46044  23467378.1074   23467382.2714
   -401600.55649   -312934.75445  20814129.5334   20814132.5904
   1207515.05049    940921.91445  20482876.9404   20482879.9074
   2595818.31649   2022716.09144  23866245.2324   23866248.2584
 98 12  2  1 22  0.0000000  0  7G 7G15G26G19G 2G27G13
  -1669383.30449  -1300816.49145  21131043.3154   21131046.7924
   -269848.02849   -210269.91544  22329091.0784   22329093.8244
   -260574.02149   -203042.52944  23133536.0184   23133539.0454
   2751539.76549   2144056.18244  23487286.2114   23487288.7464
   -416770.72449   -324755.64845  20811242.7464   20811245.7934
   1259656.30649    981551.46245  20492799.0424   20492802.0004
   2693666.33349   2098961.28544  23884865.0824   23884866.5264
 98 12  2  1 22 30.0000000  0  7G 7G15G26G19G 2G27G13
  -1726073.75649  -1344990.81645  21120255.4204   21120259.0414
   -271220.54249   -211339.38444  22328829.8154   22328832.1934
   -262711.77249   -204708.27544  23133129.2584   23133131.8944
   2856357.17349   2225732.03844  23507232.2224   23507236.7294
   -431724.75549   -336408.12345  20808396.9684   20808400.0794
   1312349.58249   1022611.15245  20502826.2974   20502829.1774
   2791590.92949   2175266.14344  23903499.0674   23903502.6174
 98 12  2  1 23  0.0000000  0  7G 7G15G26G19G13G 2G27
  -1782400.64449  -1388881.84945  21109536.7244   21109540.1654
   -271970.30749   -211923.59444  22328687.0724   22328689.4534
   -264324.82449   -205965.16244  23132822.6884   23132825.0914
   2961376.00749   2307564.88144  23527216.3184   23527219.5134
   2889596.39249   2251634.04044  23922148.8584   23922151.2984
   -446442.74649   -347876.67145  20805596.2094   20805599.3714
   1365581.97349   1064090.93445  20512956.0654   20512958.8354
 98 12  2  1 23 30.0000000  0  7G 7G15G26G19G13G 2G27
  -1838358.15549  -1432485.05545  21098888.5414   21098892.0384
   -272097.34049   -212022.55444  22328662.9014   22328665.8644
   -265407.28749   -206808.61544  23132616.1984   23132619.5284
   3066597.45549   2389555.59044  23547239.3514   23547242.5984
   2987683.30349   2328065.37644  23940814.0544   23940820.6714
   -460908.10149   -359148.35945  20802843.5074   20802846.6284
   1419343.47049   1105983.00245  20523186.7584   20523189.5544
 98 12  2  1 24  0.0000000  0  7G 7G15G26G19G13G 2G27
  -1893937.19249  -1475793.35145  21088312.3294   21088315.6234
   -271601.19649   -211635.93144  22328757.2664   22328759.9064
   -265955.10749   -207235.43244  23132511.4154   23132514.1884
   3172017.88649   2471701.35444  23567300.1684   23567303.6184
   3085858.68648   2404565.68144  23959495.9664   23959498.7264
   -475119.69949   -370222.31445  20800139.2964   20800142.4704
   1473605.95349   1148265.44745  20533512.3944   20533515.2524
 98 12  2  1 24 30.0000000  0  7G 7G15G26G19G13G 2G27
  -1949120.78349  -1518793.51245  21077811.3554   21077814.5594
   -270481.02649   -210763.05344  22328970.4874   22328973.6614
   -265965.31449   -207243.34044  23132509.4554   23132512.7904
   3277632.32349   2553998.28444  23587398.1184   23587401.0544
   3184135.43948   2481144.95944  23978197.4984   23978200.9454
   -489097.82249   -381114.33945  20797479.3514   20797482.4504
   1528357.63049   1190929.08545  20543931.2204   20543934.0784
 98 12  2  1 25  0.0000000  0  7G 7G15G26G19G13G 2G27
  -2003894.01549  -1561473.91345  21067388.2744   21067391.6354
   -268736.63849   -209403.77044  22329302.5174   22329305.6284
   -265427.58149   -206824.28344  23132611.3944   23132614.7784
   3383424.52249   2636433.73444  23607529.9084   23607533.3454
   3282491.36549   2557785.92644  23996914.2534   23996917.5364
   -502873.92149   -391848.94445  20794857.7404   20794860.8434
   1583607.40349   1233980.85345  20554445.0804   20554447.8144
 98 12  2  1 25 30.0000000  0  7G 7G15G26G19G13G 2G27
  -2058261.99749  -1603838.53045  21057042.1404   21057045.6444
   -266367.71949   -207557.83544  22329753.3844   22329756.5334
   -264341.84549   -205978.23244  23132817.8144   23132822.3364
   3489395.40049   2719008.40844  23627695.1994   23627699.5484
   3380915.88249   2634480.35344  24015644.1054   24015647.2034
   -516471.94749   -402444.79645  20792270.2104   20792273.2624
   1639363.95449   1277427.51745  20565055.1984   20565058.0154
 98 12  2  1 26  0.0000000  0  7G 7G15G26G19G13G 2G27
  -2112227.95949  -1645889.88745  21046772.8904   21046776.2594
   -263373.69849   -205224.81144  22330323.1864   22330325.4884
   -262715.95649   -204711.27044  23133127.4104   23133131.8024
   3595533.96848   2801713.74644  23647892.4094   23647898.2524
   3479407.83149   2711227.32244  24034386.8554   24034389.7284
   -529904.12149   -412911.41045  20789714.1444   20789717.1794
   1695637.83849   1321277.29545  20575763.6794   20575766.5834
 98 12  2  1 26 30.0000000  0  7G 7G15G26G19G13G 2G27
  -2165803.91949  -1687637.34445  21036577.3424   21036581.0694
   -259754.41549   -202404.55444  22331011.7944   22331013.9824
   -260551.03149   -203024.27744  23133539.4254   23133543.4914
   3701841.03348   2884550.37244  23668121.9424   23668128.0374
   3577957.22849   2788019.05444  24053140.2894   24053142.0414
   -543169.39949   -423247.97445  20787189.7824   20787192.9474
   1752442.06049   1365540.32245  20586573.1104   20586576.1574
 98 12  2  1 27  0.0000000  0  7G 7G15G26G19G13G 2G27
  -2219007.59949  -1729094.70845  21026453.1154   21026457.2694
   -255509.69949   -199096.94744  22331819.5034   22331821.8714
   -257847.51749   -200917.61644  23134054.4364   23134057.4424
   3808323.76948   2967523.89444  23688385.0124   23688391.9984
   3676558.22248   2864850.98544  24071902.9724   24071906.4644
   -556256.22149   -433445.48245  20784699.3834   20784702.6694
   1809772.74249   1410213.57745  20597482.6684   20597485.5944
 98 12  2  1 27 30.0000000  0  7G 7G15G26G19G13G 2G27
  -2271858.47749  -1770277.16545  21016396.0614   21016399.9094
   -250639.14449   -195301.66644  22332746.2874   22332748.7594
   -254610.19749   -198394.99144  23134670.9494   23134673.7694
   3914981.68649   3050633.90944  23708681.6344   23708686.2844
   3775223.63348   2941733.09144  24090677.9684   24090681.7794
   -569133.45549   -443479.67545  20782248.8824   20782252.2194
   1867625.06249   1455293.30545  20608491.4994   20608494.6054
 98 12  2  1 28  0.0000000  0  7G 7G15G26G19G13G 2G27
  -2324364.54149  -1811190.94345  21006404.3784   21006407.9664
   -245142.45449   -191018.49744  22333791.9854   22333795.1224
   -250848.65149   -195463.88544  23135386.5274   23135388.1704
   4021809.24449   3133876.14244  23729010.4234   23729015.4394
   3873954.83448   3018666.48344  24109465.9424   24109468.6414
   -581795.66349   -453346.31645  20779839.2954   20779842.5494
   1925990.34649   1500772.74545  20619597.9964   20619601.1904
 98 12  2  1 28 30.0000000  0  7G 7G15G26G19G13G 2G27
  -2376524.01849  -1851834.65445  20996478.7154   20996482.5704
   -239019.61449   -186247.42844  22334957.0434   22334960.2704
   -246557.02849   -192119.73244  23136202.8974   23136205.9814
   4128808.68149   3217252.27944  23749372.2334   23749376.4104
   3972751.29647   3095650.74444  24128266.3274   24128269.1694
   -594245.29949   -463047.32145  20777470.1714   20777473.4554
   1984871.17949   1546653.91345  20630802.6694   20630805.8894
 98 12  2  1 29  0.0000000  0  7G15G26G19G13G 7G 2G27
   -232270.33049   -180988.21244  22336241.4244   22336244.5484
   -241737.78649   -188364.44944  23137119.7304   23137122.5634
   4235981.70149   3300763.69344  23769766.6114   23769770.3904
   4071609.52947   3172683.10344  24147078.3094   24147081.5124
  -2428331.47549  -1892204.06745  20986620.1284   20986623.5614
   -606489.04449   -472587.88745  20775140.2014   20775143.4244
   2044260.91549   1592931.63845  20642104.2374   20642107.2804
 98 12  2  1 29 30.0000000  0  7G15G26G19G13G 7G 2G27
   -224894.46749   -175240.75044  22337644.7894   22337648.9714
   -236397.77249   -184203.37044  23138136.1864   23138139.4984
   4343321.25048   3384404.88844  23790192.4404   23790195.4584
   4170519.40447   3249755.73144  24165900.6854   24165904.1104
  -2479773.78949  -1932288.95645  20976830.8474   20976834.1954
   -618528.87849   -481969.56045  20772849.1594   20772852.3494
   2104152.66749   1639600.54145  20653501.3104   20653504.3384
 98 12  2  1 30  0.0000000  0  7G15G26G19G13G 7G 2G27
   -216891.76349   -169004.85344  22339167.7274   22339171.2714
   -230533.46049   -179633.74244  23139252.0664   23139255.1394
   4450830.96948   3468178.65844  23810651.0044   23810654.1954
   4269466.46047   3326857.35344  24184729.1724   24184732.0294
  -2530836.73649  -1972078.23345  20967113.9774   20967117.2974
   -630382.01449   -491205.75845  20770593.7944   20770596.9774
   2164546.20749   1686660.44245  20664993.9044   20664996.9284
 98 12  2  1 30 30.0000000  0  7G15G26G19G13G 7G 2G27
   -208262.55649   -162280.76144  22340809.5824   22340813.2084
   -224129.48049   -174643.59844  23140470.8704   23140473.4214
   4558507.74448   3552082.60544  23831141.3104   23831143.6894
   4368442.94347   3403981.84144  24203563.7594   24203564.4384
  -2581507.04849  -2011561.56045  20957471.8224   20957474.9144
   -642031.68749   -500283.41445  20768376.8784   20768380.0444
   2225439.91749   1734110.07545  20676581.4694   20676584.5484
 98 12  2  1 31  0.0000000  0  7G15G26G19G13G 7G 2G27
   -199006.80149   -155068.46244  22342570.8494   22342574.1394
   -217184.91649   -169232.22544  23141792.1364   23141795.3584
   4666361.81948   3636124.70944  23851664.9634   23851667.9364
   4467444.14947   3481125.63144  24222403.0954   24222406.0854
  -2631780.27649  -2050735.47145  20947905.2404   20947908.0784
   -653460.38049   -509188.87845  20766202.1184   20766205.1714
   2286827.28249   1781944.37945  20688262.9464   20688266.0774
 98 12  2  1 31 30.0000000  0  7G15G26G19G13G 7G 2G27
   -189124.11649   -147367.63644  22344451.3244   22344454.7644
   -209697.85449   -163398.13244  23143216.7414   23143219.8744
   4774383.62848   3720297.52144  23872220.8704   23872225.7034
   4566479.87847   3558296.31844  24241248.8394   24241251.3484
  -2681653.86749  -2089597.97845  20938414.5404   20938417.4074
   -664659.63549   -517915.56045  20764070.8724   20764073.9014
   2348721.62249   1830173.73345  20700040.8514   20700044.0464
 98 12  2  1 32  0.0000000  0  7G15G26G19G13G 7G 2G27
   -178614.43749   -139178.26544  22346451.2714   22346454.6204
   -201661.60249   -157136.09444  23144746.2874   23144749.2644
   4882574.60248   3804602.18244  23892809.0504   23892811.2714
   4665560.16047   3635501.70244  24260103.5284   24260108.5314
  -2731127.70449  -2128148.99245  20929000.2014   20929002.9744
   -675630.88949   -526464.57945  20761983.1034   20761986.1844
   2411133.10849   1878806.06145  20711917.1974   20711920.5774
 98 12  2  1 32 30.0000000  0  7G15G26G19G13G 7G 2G27
   -167478.29049   -130500.72144  22348570.3724   22348574.0264
   -193083.86749   -150452.12844  23146378.7274   23146381.4204
   4990929.18947   3889034.30344  23913427.7854   23913430.3184
   4764690.24148   3712745.91144  24278968.0994   24278968.1514
  -2780197.70649  -2166385.33245  20919662.5654   20919665.2484
   -686366.49349   -534829.97445  20759940.3284   20759943.4254
   2474059.45649   1927839.57845  20723891.9144   20723895.0784
 98 12  2  1 33  0.0000000  0  7G15G26G19G13G 7G 2G27
   -155715.59249   -121334.96644  22350808.9164   22350812.0664
   -183985.06149   -143362.13144  23148110.2204   23148112.5544
   5099436.56547   3973585.47944  23934076.1064   23934081.5594
   4863870.82548   3790029.46644  24297842.3434   24297842.7744
  -2828872.64149  -2204313.82845  20910399.7404   20910402.6774
   -696887.96849   -543028.51345  20757937.9804   20757941.1494
   2537499.90649   1977273.69245  20735964.6074   20735967.3934
 98 12  2  1 33 30.0000000  0  7G15G26G19G13G 7G 2G27
   -143326.15249   -111680.84144  22353166.6394   22353169.7884
   -174375.87249   -135874.43844  23149938.8424   23149941.1684
   5208080.80347   4058243.31144  23954750.3564   23954754.4334
   4963090.60848   3867343.54744  24316723.7884   24316725.7644
  -2877158.19949  -2241938.91245  20901211.2234   20901214.2504
   -707208.96049   -551070.82845  20755973.8274   20755977.0914
   2601439.70149   2027096.89845  20748132.0734   20748134.8194
 98 12  2  1 34  0.0000000  0  7G15G26G19G13G 7G 2G27
   -130310.20549   -101538.52844  22355643.6904   22355647.2064
   -164258.94849   -127991.10644  23151863.8624   23151865.5174
   5316858.77647   4143005.30244  23975449.9354   23975451.9854
   5062327.28548   3944670.80844  24335607.4824   24335611.1244
  -2925051.52849  -2279258.36445  20892097.2064   20892100.2314
   -717325.67449   -558953.96945  20754048.6164   20754051.9874
   2665854.57049   2077290.29245  20760389.8384   20760392.9444
 98 12  2  1 34 30.0000000  0  7G15G26G19G13G 7G 2G27
   -116668.11149    -90908.31144  22358239.3564   22358242.7424
   -153647.73849   -119722.60544  23153882.8824   23153884.9594
   5425767.96947   4227869.57244  23996174.8614   23996179.1964
   5161571.75648   4022004.12644  24354492.7014   24354494.6864
  -2972565.65249  -2316282.32845  20883055.5894   20883058.6394
   -727233.21049   -566674.11245  20752163.4304   20752166.6874
   2730739.74749   2127850.15645  20772737.0504   20772740.0024
 98 12  2  1 35  0.0000000  0  7G15G26G19G13G 7G 2G27
   -102399.90649    -79790.21744  22360954.2634   22360958.2354
   -142538.70549   -111066.20244  23155996.4674   23155999.3254
   5534811.16747   4312838.28944  24016925.2524   24016930.7744
   5260820.21348   4099340.59844  24373378.7754   24373382.7514
  -3019709.81449  -2353018.01145  20874084.5144   20874087.2784
   -736930.28749   -574230.26145  20750318.1894   20750321.4014
   2796092.97649   2178774.73945  20785173.5814   20785175.8694
 98 12  2  1 35 30.0000000  0  7G15G26G19G13G 7G 2G27
    -87505.71549    -68184.33744  22363788.6144   22363791.7944
   -130919.06349   -102011.92344  23158207.9274   23158210.7624
   5643995.00047   4397916.56844  24037702.1104   24037706.6874
   5360066.63748   4176675.42544  24392264.1324   24392265.9074
  -3066484.65249  -2389465.91145  20865183.7684   20865186.1514
   -746392.22349   -581603.18345  20748517.7674   20748520.9554
   2861919.85549   2230068.40745  20797700.0084   20797702.1584
 98 12  2  1 36  0.0000000  0  7G15G26G19G13G 7G 2G27
    -71985.89949    -56090.96144  22366742.1044   22366745.2154
   -118781.40849    -92553.99644  23160517.4514   23160519.6474
   5753323.15847   4483107.32144  24058506.7124   24058510.1024
   5459316.16047   4254012.73044  24411149.9534   24411154.5604
  -3112891.29649  -2425626.90645  20856352.7474   20856355.4714
   -755614.64849   -588789.47145  20746762.7034   20746765.8964
   2928237.15249   2281744.21245  20810319.7954   20810322.2464
 98 12  2  1 36 30.0000000  0  7G15G26G19G13G 7G 2G27
    -55840.64349    -43510.22744  22369814.8454   22369817.3824
   -106126.51849    -82693.03444  23162925.7464   23162927.3274
   5862797.74547   4568412.18044  24079339.2614   24079341.7374
   5558575.90647   4331357.97644  24430037.7814   24430044.1324
  -3158931.77549  -2461502.57645  20847591.4854   20847594.0434
   -764605.59949   -595795.39345  20745051.6924   20745054.8774
   2995052.89549   2333808.41045  20823034.1924   20823036.9324
 98 12  2  1 37  0.0000000  0  7G15G26G19G13G 7G 2G27
    -39069.96149    -30442.13344  22373005.9784   22373009.0394
    -92939.93849    -72417.75444  23165435.0334   23165436.7384
   5972408.96947   4653823.50544  24100197.8074   24100203.9204
   5657836.89647   4408704.19344  24448926.4234   24448931.7554
  -3204593.54749  -2497083.15445  20838902.2304   20838904.9314
   -773366.93049   -602622.39145  20743384.4934   20743387.6964
   3062362.74149   2386257.62145  20835842.9844   20835845.7474
 98 12  2  1 37 30.0000000  0  7G15G26G19G13G 7G 2G27
    -21674.30449    -16887.06044  22376316.2804   22376319.8274
    -79226.17549    -61731.68844  23168044.4644   23168046.6904
   6082156.02647   4739340.66144  24121082.0304   24121085.4184
   5757106.67547   4486057.24844  24467816.5264   24467820.6264
  -3249870.25849  -2532363.68345  20830286.1004   20830288.9094
   -781907.75949   -609277.56445  20741759.3834   20741762.5234
   3130167.78449   2439092.71145  20848745.8434   20848748.1324
 98 12  2  1 38  0.0000000  0  7G15G26G19G13G 7G 2G27
     -3654.32149     -2845.48744  22379745.1644   22379748.3024
    -64993.28149    -50641.09344  23170752.7244   23170754.2984
   6192038.85047   4824963.63144  24141991.7034   24141995.8964
   5856387.69047   4563419.06044  24486709.4474   24486712.9904
  -3294754.08849  -2567338.06945  20821744.9974   20821747.8074
   -790249.68949   -615777.75145  20740171.8864   20740174.9884
   3198466.76349   2492312.68745  20861742.7664   20861745.1904
 98 12  2  1 38 30.0000000  0  7G15G26G19G13G 7G 2G27
     14989.46849     11682.15444  22383293.2294   22383296.3844
    -50247.30349    -39150.71144  23173558.6684   23173561.0184
   6302047.02947   4910684.25144  24162925.1744   24162929.4864
   5955678.63247   4640788.61744  24505604.8794   24505609.0264
  -3339241.21449  -2602003.33545  20813279.2604   20813282.3124
   -798397.42749   -622126.62745  20738621.3904   20738624.4694
   3267256.54749   2545915.11445  20874832.8064   20874835.3344
 98 12  2  1 39  0.0000000  0  7G15G26G19G13G 7G 2G27
     34257.09049     26695.90444  22386959.7344   22386962.7194
    -34985.81449    -27258.62244  23176462.9064   23176465.2854
   6412187.56147   4996508.00744  24183883.9124   24183886.9174
   6054981.48148   4718167.45144  24524502.2264   24524504.3994
  -3383335.14349  -2636362.21145  20804888.3864   20804891.2204
   -806346.06749   -628320.36445  20737108.7034   20737111.8404
   3336544.33849   2599905.59645  20888017.9174   20888020.7264
 98 12  2  1 39 30.0000000  0  7G15G26G19G13G 7G 2G27
     54147.96149     42195.30444  22390744.8984   22390748.1184
    -19218.04649    -14972.03244  23179463.5484   23179466.3354
   6522463.98047   5082437.64944  24204868.8914   24204872.0654
   6154290.31148   4795550.91144  24543400.8524   24543402.2614
  -3427039.27049  -2670417.34745  20796571.9214   20796574.5344
   -814092.22149   -634356.31845  20735634.6164   20735637.7964
   3406331.08349   2654284.87245  20901297.8234   20901300.6684
 98 12  2  1 40  0.0000000  0  7G15G26G19G13G 7G 2G27
     74661.59949     58179.96344  22394648.3294   22394651.1144
     -2937.37749     -2285.78144  23182561.9434   23182564.2024
   6632862.37347   5168462.37644  24225877.3704   24225883.8814
   6253589.46348   4872926.85744  24562296.8564   24562301.2694
  -3470359.13149  -2704173.05745  20788328.4954   20788330.9924
   -821622.24549   -640223.85345  20734201.7424   20734204.8914
   3476608.67749   2709046.62945  20914671.2844   20914674.1004
 98 12  2  1 40 30.0000000  0  7G15G26G19G13G 7G 2G27
     95797.59849     74649.58844  22398670.3004   22398673.4324
     13862.70849     10805.21044  23185759.0594   23185761.5954
   6743380.91447   5254580.73244  24246908.1294   24246912.9814
   6352873.90948   4950291.34644  24581190.4974   24581193.5234
  -3513295.38449  -2737629.84445  20780158.0044   20780160.7424
   -828909.06249   -645901.87945  20732815.1244   20732818.2904
   3547362.44449   2764179.42945  20928134.9794   20928138.0074
 98 12  2  1 41  0.0000000  0  7G15G26G19G13G 7G 2G27
    117555.47349     91603.78444  22402811.0914   22402813.4744
     31177.77149     24297.47144  23189054.0504   23189056.0634
   6854022.23847   5340794.70944  24267962.6324   24267969.9174
   6452133.80649   5027636.69744  24600078.9124   24600080.3664
  -3555849.75449  -2770789.06545  20772060.2164   20772062.7724
   -835937.49849   -651378.57145  20731477.6864   20731480.7164
   3618591.56049   2819682.63145  20941689.6484   20941692.6724
 98 12  2  1 41 30.0000000  0  7G15G26G19G13G 7G 2G27
    139934.67849    109042.13844  22407069.5744   22407071.9994
     48997.74549     38183.18544  23192445.2154   23192447.3094
   6964764.03547   5427087.02044  24289035.9914   24289041.3724
   6551363.36849   5104958.39944  24618961.8344   24618963.6934
  -3598020.97949  -2803649.73245  20764035.1514   20764038.0784
   -842708.44049   -656654.61945  20730189.1774   20730192.2524
   3690289.19749   2875550.91645  20955333.0954   20955336.3034
 98 12  2  1 42  0.0000000  0  7G15G26G19G13G 7G 2G27
    162934.58549    126964.14744  22411446.1404   22411449.1814
     67326.28149     52465.18244  23195932.9044   23195935.2684
   7075613.33547   5513463.07644  24310130.4204   24310134.3644
   6650568.68449   5182261.19644  24637840.0684   24637841.9204
  -3639804.74049  -2836208.48045  20756083.8034   20756086.8444
   -849228.32749   -661735.03945  20728948.3604   20728951.5264
   3762454.37049   2931783.51645  20969065.7574   20969068.9784
 98 12  2  1 42 30.0000000  0  7G27G15G26G19G13G 7G 2
   3835095.23249   2988386.78045  20982888.7104   20982891.9934
    186554.70449    145369.44144  22415940.6454   22415943.8094
     86148.86549     67132.14344  23199514.3474   23199517.4044
   7186581.71247   5599931.95144  24331246.4554   24331247.0124
   6749746.12749   5259542.30044  24656712.8394   24656713.8394
  -3681203.21849  -2868467.00645  20748205.8714   20748208.9374
   -855510.53549   -666630.25445  20727752.7584   20727756.0964
 98 12  2  1 43  0.0000000  0  7G27G15G26G19G13G 7G 2
   3908219.79949   3045366.96345  20996803.9764   20996807.1134
    210794.53549    164257.62844  22420553.6554   22420556.7234
    105463.31949     82182.37544  23203189.6474   23203191.6924
   7297658.65047   5686485.40444  24352383.8704   24352387.5714
   6848896.46249   5336802.26644  24675580.3224   24675581.8554
  -3722221.38349  -2900429.18645  20740400.4114   20740403.5394
   -861594.56449   -671371.04445  20726594.9334   20726598.2984
 98 12  2  1 43 30.0000000  0  7G27G15G26G19G 7G 2G13
   3981812.88049   3102712.22445  21010808.1284   21010811.3014
    235653.00349    183627.86744  22425284.0804   22425287.0204
    125279.98549     97623.95144  23206960.5134   23206962.2084
   7408843.81247   5773123.19444  24373541.8214   24373547.2694
  -3762850.83049  -2932088.46945  20732668.8344   20732671.8374
   -867496.21749   -675969.72245  20725472.0714   20725475.2834
   6948017.77749   5414039.65544  24694442.8244   24694446.6964
 98 12  2  1 44  0.0000000  0  7G27G15G26G19G 7G 2G13
   4055869.52449   3160418.69245  21024900.7074   21024903.8204
    261129.63149    203479.79844  22430131.8944   22430135.5054
    145605.49949    113462.02144  23210828.3664   23210831.3204
   7520142.73947   5859849.63044  24394721.6114   24394724.7674
  -3803089.76449  -2963443.45545  20725011.5184   20725014.5454
   -873215.04549   -680425.93745  20724383.7284   20724386.9284
   7047099.91449   5491246.48944  24713297.0834   24713301.3054
 98 12  2  1 44 30.0000000  0  7G27G15G26G19G13G 7G 2
   4130374.73749   3218474.69844  21039078.4544   21039081.5834
    287223.76249    223812.89444  22435096.9274   22435100.6334
    166441.21349    129697.66544  23214793.4864   23214794.8274
   7631540.51747   5946653.07944  24415920.3874   24415925.1364
   7146135.16048   5568416.79144  24732142.5054   24732145.6034
  -3842934.05549  -2994490.93245  20717429.4624   20717432.3604
   -878745.41649   -684735.30945  20723331.5124   20723334.6474
 98 12  2  1 45  0.0000000  0  7G27G15G26G19G13G 7G 2
   4205316.76149   3276871.06844  21053339.5254   21053342.7114
    313934.79549    244626.69144  22440179.6514   22440182.9434
    187797.43849    146338.89544  23218857.5194   23218860.4274
   7743030.69347   6033528.55644  24437136.7974   24437139.3834
   7245122.40848   5645549.68644  24750978.5954   24750982.5684
  -3882377.01849  -3025225.68845  20709923.7304   20709926.7324
   -884078.61849   -688891.04545  20722316.5174   20722319.5764
 98 12  2  1 45 30.0000000  0  7G27G15G26G19G 7G 2G13
   4280695.96449   3335608.08544  21067683.7194   21067686.9124
    341261.70249    265920.39044  22445379.8944   22445383.1374
    209665.54249    163378.98644  23223018.9764   23223021.3264
   7854618.09447   6120479.73744  24458370.7564   24458374.2054
  -3921418.88849  -3055647.90145  20702494.2934   20702497.3894
   -889174.39749   -692861.77445  20721346.8834   20721349.9254
   7344049.39848   5722635.65644  24769803.5774   24769809.4314
 98 12  2  1 46  0.0000000  0  7G27G15G26G19G 7G 2G13
   4356524.00549   3394694.84944  21082113.3844   21082116.5414
    369204.06049    287693.66244  22450697.3504   22450700.4764
    232025.73449    180802.53344  23227274.0644   23227275.3664
   7966313.71547   6207515.25644  24479625.8084   24479629.3384
  -3960073.47549  -3085768.34045  20695138.5114   20695141.6534
   -894019.72149   -696637.34245  20720424.8034   20720427.9054
   7442913.17747   5799672.35244  24788615.9464   24788622.1384
 98 12  2  1 46 30.0000000  0  7G27G15G26G19G 7G 2G13
   4432809.88749   3454138.38444  21096629.9834   21096633.0834
    397760.82949    309945.69444  22456131.9234   22456135.0814
    254869.19349    198602.63844  23231620.6484   23231623.2944
   8078124.02547   6294640.17844  24500902.9604   24500907.8054
  -3998344.01149  -3115589.51845  20687855.4124   20687858.6864
   -898600.10049   -700206.46045  20719553.3094   20719556.3454
   7541717.26947   5876662.53244  24807417.6404   24807423.0394
 98 12  2  1 47  0.0000000  0  7G27G15G26G19G 7G 2G13
   4509573.65549   3513954.30044  21111237.8464   21111240.9794
    426930.96649    332675.68244  22461683.3164   22461686.3634
    278189.31949    216774.16944  23236058.2494   23236060.2754
   8190047.76647   6381853.41944  24522201.0794   24522204.8734
  -4036243.94849  -3145121.91945  20680643.2404   20680646.4484
   -902915.35249   -703568.98545  20718732.2244   20718735.3034
   7640462.55348   5953606.91644  24826208.8984   24826214.2674
 98 12  2  1 47 30.0000000  0  7G27G15G26G19G 7G 2G13
   4586816.95449   3574143.87744  21125936.6334   21125939.7294
    456713.87849    355883.15044  22467349.9804   22467353.1754
    301978.35849    235311.08944  23240585.3994   23240587.5924
   8302082.64147   6469153.28544  24543521.2084   24543526.2744
  -4073771.70849  -3174364.31145  20673502.1964   20673505.3634
   -906963.56349   -706723.42745  20717961.6634   20717964.7804
   7739149.44748   6030505.79644  24844988.9034   24844991.2544
 98 12  2  1 48  0.0000000  0  7G27G15G26G19G 7G 2G13
   4664524.93849   3634695.54744  21140724.1474   21140727.3664
    487108.59649    379567.36244  22473133.6524   22473137.1694
    326242.35349    254218.09244  23245202.6384   23245205.0334
   8414226.31848   6556537.96444  24564860.9744   24564864.6624
  -4110925.14749  -3203315.02645  20666432.2694   20666435.4034
   -910763.09949   -709684.09245  20717238.5634   20717241.6624
   7837793.42948   6107371.21844  24863760.6014   24863763.4254
 98 12  2  1 48 30.0000000  0  7G27G15G26G 7G 2G19G13
   4742688.15149   3695601.93044  21155598.0734   21155601.2394
    518114.29949    403727.66944  22479033.7794   22479037.3034
    351002.40849    273511.65944  23249914.3284   23249915.9024
  -4147697.46749  -3231968.76445  20659434.8024   20659437.9404
   -914326.66449   -712460.89145  20716560.4194   20716563.5074
   8526451.58648   6643986.19244  24586217.1744   24586217.6304
   7936403.30649   6184210.07344  24882525.5534   24882526.9634
 98 12  2  1 49  0.0000000  0  7G27G15G26G 7G 2G19G13
   4821294.59449   3756853.67844  21170556.2994   21170559.4084
    549729.96349    428363.25344  22485050.2474   22485053.7614
    376254.74649    293188.82144  23254719.8454   23254722.3594
  -4184085.36749  -3260322.95645  20652510.6134   20652513.5314
   -917673.86449   -715069.09345  20715923.5684   20715926.6564
   8638745.14848   6731487.64344  24607586.3644   24607583.8634
   8034973.88949   6261018.31944  24901283.0234   24901286.1744
 98 12  2  1 49 30.0000000  0  7G27G15G26G 7G 2G19G13
   4900342.83949   3818449.68244  21185598.7554   21185601.8364
    581954.19549    453473.05844  22491182.7634   22491185.4574
    401990.01349    313242.26844  23259617.0724   23259618.6114
  -4220076.75049  -3288368.17545  20645661.6034   20645664.6424
   -920799.76249   -717504.85345  20715328.4874   20715331.6744
   8751116.92248   6819050.04344  24628970.0264   24628972.8814
   8133495.72449   6337788.56744  24920031.7154   24920034.7594
 98 12  2  1 50  0.0000000  0  7G27G15G26G19G 7G 2G13
   4979838.24349   3880394.13844  21200726.2514   21200729.2914
    614786.63649    479056.79144  22497430.7534   22497433.1744
    428212.25849    333675.19544  23264607.1904   23264609.4734
   8863569.70548   6906675.57044  24650369.1064   24650369.5744
  -4255672.72449  -3316105.28345  20638888.0184   20638891.1454
   -923706.20449   -719769.60745  20714775.3474   20714778.6544
   8231961.60949   6414515.21144  24938769.4494   24938772.6244
 98 12  2  1 50 30.0000000  0  7G27G15G26G 7G 2G19G13
   5059793.39949   3942696.84744  21215941.1264   21215944.1154
    648226.28649    505113.68744  22503793.9604   22503797.0004
    454915.67249    354483.05544  23269688.6564   23269690.7474
  -4290872.22949  -3343533.45745  20632189.6384   20632192.5894
   -926390.55549   -721861.30245  20714264.5874   20714267.8034
   8976098.27548   6994360.14944  24671782.5594   24671782.4834
   8330344.22549   6491177.00144  24957490.8284   24957493.3324
 98 12  2  1 51  0.0000000  0  7G27G15G26G 7G 2G19G13
   5140215.55149   4005363.44644  21231244.8644   21231247.7934
    682271.82949    531642.67744  22510272.4614   22510275.6834
    482091.54549    375659.06044  23274859.7644   23274861.7974
  -4325672.76549  -3370650.74545  20625567.3024   20625570.2634
   -928837.25649   -723767.81445  20713798.9614   20713802.1374
   9088720.12448   7082117.40344  24693213.4624   24693212.8484
   8428634.89649   6567767.10344  24976194.6944   24976197.5934
 98 12  2  1 51 30.0000000  0  7G27G15G26G 7G 2G19G13
   5221092.31249   4068384.28244  21246635.3184   21246638.3734
    716922.37449    558643.11644  22516866.0674   22516869.2884
    509751.54249    397212.30544  23280123.0474   23280125.3524
  -4360072.79549  -3397455.94945  20619021.2704   20619024.1184
   -931030.67949   -725476.96645  20713381.7444   20713384.8984
   9201437.53548   7169949.13544  24714662.3934   24714663.5124
   8526843.68448   6644293.43144  24994882.9034   24994885.2844
 98 12  2  1 52  0.0000000  0  7G27G15G26G 7G 2G19G13
   5302395.28649   4131737.23844  21262106.8684   21262109.9594
    752176.63749    586113.97744  22523575.0764   22523577.9514
    537900.55549    419146.60144  23285479.9244   23285482.4974
  -4394092.34049  -3423964.66845  20612547.4174   20612550.3674
   -932964.82649   -726984.08245  20713013.6644   20713016.7384
   9314230.76447   7257839.94644  24736125.7994   24736128.7324
   8624980.03148   6720763.31144  25013557.4874   25013560.9574
 98 12  2  1 52 30.0000000  0  7G27G15G26G 7G 2G19G13
   5384120.59849   4195419.28944  21277658.9094   21277662.0014
    788033.85749    614054.67444  22530398.4724   22530401.0274
    566534.10149    441458.46444  23290928.7334   23290931.3074
  -4427738.83649  -3450182.69845  20606144.8324   20606147.6754
   -934634.24049   -728284.91045  20712695.9934   20712699.0924
   9427087.20647   7345779.98544  24757601.6664   24757605.8044
   8723050.33248   6797181.72944  25032219.4464   25032221.3434
 98 12  2  1 53  0.0000000  0  7G27G15G26G 7G 2G19G13
   5466258.28349   4259422.67544  21293289.3724   21293292.3854
    824492.43849    642463.96244  22537336.0834   22537338.6974
    595649.57349    464145.84844  23296468.8644   23296471.1994
  -4461013.57249  -3476111.04745  20599812.7804   20599815.7564
   -936037.74549   -729378.54045  20712429.0134   20712432.1424
   9540005.47847   7433768.20344  24779089.1034   24779093.5624
   8821068.60648   6873559.61444  25050871.6954   25050873.6614
 98 12  2  1 53 30.0000000  0  7G27G15G26G 7G 2G19G13
   5548795.35849   4323737.26844  21308995.7244   21308998.4824
    861551.04349    671340.80844  22544387.8924   22544390.2544
    625235.41449    487199.75744  23302098.9794   23302101.0074
  -4493916.86149  -3501749.95645  20593551.6494   20593554.6114
   -937189.18649   -730275.75845  20712209.9114   20712213.0804
   9652975.33147   7521796.64244  24800586.5424   24800589.7074
   8919021.40548   6949886.48644  25069511.8214   25069513.1514
 98 12  2  1 54  0.0000000  0  7G27G15G26G 7G 2G19G13
   5631750.64449   4388377.73444  21324781.5334   21324784.4164
    899208.55049    700684.33144  22551553.6794   22551555.8524
    655294.14849    510622.15044  23307819.1274   23307821.3054
  -4526455.37349  -3527104.62445  20587359.7854   20587362.7074
   -938110.54649   -730993.69046  20712034.6204   20712037.7854
   9765996.23247   7609864.86544  24822093.6084   24822100.1534
   9016890.58148   7026148.19444  25088135.5824   25088137.8514
 98 12  2  1 54 30.0000000  0  7G27G15G26G 7G 2G19G13
   5715141.39349   4453357.52244  21340650.4334   21340653.1174
    937463.78349    730493.60844  22558833.4834   22558835.9054
    685829.18449    534415.70144  23313629.8644   23313631.9504
  -4558598.51149  -3552151.20945  20581242.9864   20581245.7934
   -938822.78649   -731548.67246  20711899.2004   20711902.3694
   9879079.52847   7697981.67544  24843612.4544   24843617.2474
   9114660.34048   7102332.42844  25106740.8774   25106743.2244
 98 12  2  1 55  0.0000000  0  7G27G15G26G 7G 2G19G13
   5798957.89549   4518669.05744  21356600.0824   21356602.4504
    976315.89449    760767.98844  22566226.8864   22566228.7254
    716830.17749    558572.33244  23319529.3974   23319532.0134
  -4590333.60649  -3576879.83645  20575204.0214   20575206.9384
   -939338.06949   -731950.18346  20711800.9524   20711804.0454
   9992228.69047   7786149.81544  24865143.6744   24865150.7644
   9212305.69648   7178419.72844  25125322.1344   25125324.5114
 98 12  2  1 55 30.0000000  0  7G27G15G26G 7G 2G19G13
   5883197.88549   4584310.58544  21372630.3894   21372632.9694
   1015763.51649    791506.40244  22573733.3904   22573736.1394
    748297.28249    583092.16344  23325517.0914   23325519.9434
  -4621666.91049  -3601295.37745  20569241.5494   20569244.2354
   -939651.57949   -732194.46846  20711741.2414   20711744.3744
  10105444.71647   7874370.06844  24886688.4284   24886693.7504
   9309816.76348   7254402.39344  25143877.8454   25143879.3564
 98 12  2  1 56  0.0000000  0  7G27G15G26G 7G 2G19G13
   5967865.62249   4650285.42444  21388741.8864   21388744.9474
   1055805.36049    822707.84944  22581352.9914   22581355.7324
    780236.09549    607979.56044  23331594.7954   23331597.7454
  -4652607.44849  -3625404.86745  20563353.9254   20563356.5774
   -939742.80449   -732265.54246  20711723.9194   20711727.0844
  10218728.74447   7962643.31044  24908245.4194   24908252.5544
   9407201.60648   7330286.67644  25162409.2234   25162412.8814
 98 12  2  1 56 30.0000000  0  7G27G15G26G 7G 2G19G13
   6052951.87649   4716586.38744  21404933.1864   21404936.0664
   1096439.99049    854371.20244  22589085.3584   22589088.5374
    812623.50149    633216.50844  23337757.9904   23337761.3544
  -4683151.76749  -3649205.61745  20557541.4394   20557543.9404
   -939590.93549   -732147.19646  20711752.8404   20711755.9714
  10332076.13748   8050965.93044  24929815.1444   24929820.9464
   9504460.31448   7406072.70444  25180916.8714   25180919.8404
 98 12  2  1 57  0.0000000  0  7G27G15G26G 7G 2G19G13
   6138450.60449   4783208.76844  21421203.0274   21421205.9014
   1137665.83749    886495.25244  22596930.7954   22596933.5444
    845459.31349    658802.86044  23344006.3174   23344008.8564
  -4713328.26049  -3672719.74645  20551798.9824   20551801.6284
   -939179.12249   -731826.29246  20711831.0984   20711834.2624
  10445481.54648   8139333.76944  24951395.8164   24951403.0994
   9601612.63248   7481775.82644  25199404.1344   25199406.8774
 98 12  2  1 57 30.0000000  0  7G27G15G26G 7G 2G19G13
   6224372.28849   4850160.72044  21437553.6104   21437556.4294
   1179481.70949    919079.05944  22604888.2554   22604891.1964
    878757.15849    684749.24344  23350342.2534   23350345.5394
  -4743143.67349  -3695952.51545  20546125.2554   20546127.6524
   -938488.86449   -731288.41746  20711962.4354   20711965.6084
  10558949.81948   8227750.56644  24972988.1664   24972992.4604
   9698686.21348   7557417.61144  25217876.6164   25217876.6734
 98 12  2  1 58  0.0000000  0  7G27G15G26G 7G 2G19G13
   6310726.75649   4917449.89444  21453986.3794   21453989.0934
   1221886.51849    952121.78044  22612957.1844   22612960.6674
    912515.01149    711054.07244  23356766.1244   23356769.3484
  -4772588.40849  -3718896.44545  20540522.1374   20540524.5424
   -937527.01349   -730538.91446  20712145.3074   20712148.5004
  10672470.94748   8316208.57244  24994590.5654   24994596.8884
   9795683.49448   7632999.92244  25236334.7044   25236337.0464
 98 12  2  1 58 30.0000000  0  7G27G15G26G 7G 2G19G13
   6397519.02249   4985080.21244  21470502.4954   21470505.2974
   1264878.51849    985622.04144  22621138.3574   22621141.6144
    946724.05849    737710.47444  23363275.8944   23363279.0164
  -4801651.22449  -3741542.77845  20534991.4364   20534994.1404
   -936306.31049   -729587.71146  20712377.7974   20712380.9074
  10786041.06748   8404704.73044  25016202.2304   25016208.8354
   9892600.57347   7708519.71644  25254777.4374   25254781.0284
 98 12  2  1 59  0.0000000  0  7G27G15G26G 7G 2G19G13
   6484752.86149   5053054.61744  21487102.5754   21487105.5154
   1308456.35749   1019578.81844  22629430.8814   22629433.9414
    981393.34749    764725.52044  23369872.9244   23369876.8794
  -4830333.61649  -3763892.67545  20529533.3434   20529536.2804
   -934820.01949   -728429.55146  20712660.6734   20712663.7294
  10899666.62048   8493244.10344  25037825.0864   25037830.2304
   9989434.93447   7783975.06844  25273205.2194   25273208.6354
 98 12  2  1 59 30.0000000  0  7G27G15G26G 7G 2G19G13
   6572419.41549   5121366.19544  21503784.9344   21503787.3624
   1352618.79649   1053991.12044  22637834.6834   22637837.7414
   1016514.44149    792092.60744  23376556.2334   23376560.2204
  -4858625.85049  -3785938.55445  20524149.5754   20524152.5634
   -933064.65549   -727061.72146  20712994.7414   20712997.7524
  11013339.36548   8581820.24044  25059456.0934   25059461.0324
  10086161.21047   7859346.16444  25291611.6624   25291617.3474
 98 12  2  2  0  0.0000000  0  7G27G15G26G 7G 2G19G13
   6660502.18549   5190002.09944  21520546.6504   21520549.5864
   1397364.06549   1088857.58344  22646349.7444   22646352.8934
   1052076.80149    819803.55044  23383323.8324   23383327.4614
  -4886528.34649  -3807680.74145  20518839.8394   20518842.8024
   -931048.07849   -725490.35446  20713378.3354   20713381.4344
  11127055.90248   8670430.48544  25081096.1144   25081099.8214
  10182756.72347   7934615.44344  25309993.7174   25309997.3494
 98 12  2  2  0 30.0000000  0  7G27G15G26G 7G 2G19G13
   6748981.48249   5258946.99744  21537383.6134   21537386.0834
   1442690.41249   1124176.81944  22654975.0834   22654977.3874
   1088078.71149    847856.98944  23390174.7584   23390178.1364
  -4914044.22849  -3829121.67145  20513603.6984   20513606.7364
   -928756.63549   -723704.80946  20713814.3684   20713817.4834
  11240823.85448   8759080.81044  25102745.2554   25102750.1364
  10279207.26147   8009771.71044  25328347.9744   25328350.9154
 98 12  2  2  1  0.0000000  0  7G27G15G26G 7G 2G19G13
   6837827.41649   5328177.58444  21554290.4044   21554293.3074
   1488596.75249   1159948.01044  22663710.7964   22663712.9854
   1124529.43849    876260.16744  23397111.1364   23397115.0284
  -4941176.52249  -3850263.70145  20508440.5944   20508443.5554
   -926184.54949   -721700.58046  20714303.8614   20714306.9054
  11354641.29748   8847769.68244  25124404.0494   25124406.2714
  10375497.87647   8084803.40444  25346671.3594   25346672.4634
 98 12  2  2  1 30.0000000  0  7G27G15G26G 7G 2G19G13
   6927024.80049   5397682.01444  21571263.8974   21571266.4514
   1535081.44849   1196169.87144  22672556.7384   22672558.4214
   1161433.23649    905016.37044  23404133.6944   23404137.1934
  -4967916.25849  -3871099.84045  20503352.2844   20503355.0774
   -923342.55849   -719486.02746  20714844.5904   20714847.7344
  11468495.30448   8936487.03844  25146069.7584   25146074.9014
  10471630.61947   8159712.06844  25364965.1084   25364965.7004
 98 12  2  2  2  0.0000000  0  7G27G15G26G 7G 2G19G13
   7016585.00749   5467469.16144  21588306.5304   21588309.5634
   1582142.84349   1232841.10244  22681512.3964   22681514.6434
   1198791.04849    934126.35844  23411242.7094   23411246.0824
  -4994262.07549  -3891629.03245  20498338.8964   20498341.5114
   -920238.11049   -717066.96646  20715435.3734   20715438.4964
  11582388.41647   9025234.87044  25167743.0614   25167748.1094
  10567612.06047   8234502.76144  25383229.3844   25383230.6624
 98 12  2  2  2 30.0000000  0  7G27G15G26G 7G 2G19G13
   7106510.98349   5537541.32344  21605419.0064   21605422.1464
   1629779.22949   1269960.36844  22690576.7324   22690580.3764
   1236603.17549    963590.36244  23418438.0174   23418441.7594
  -5020211.47449  -3911849.32745  20493400.8794   20493403.5474
   -916875.89749   -714447.04646  20716075.2094   20716078.2994
  11696309.27747   9114004.30144  25189421.7634   25189426.6034
  10663447.14847                  25401466.0514
 98 12  2  2  3  0.0000000  0  7G27G15G26G 7G 2G19G13
   7196812.69349   5607906.27144  21622602.8824   21622605.6434
   1677989.12449   1307526.52644  22699750.7864   22699753.9304
   1274868.13949    993407.20744  23425719.6854   23425723.3334
  -5045769.67449  -3931764.78945  20488537.1954   20488539.8224
   -913275.51549   -711641.54446  20716760.4644   20716763.5494
  11810250.51147   9202789.61744  25211104.3844   25211109.5654
  10759161.46347                  25419679.5234
 98 12  2  2  3 30.0000000  0  7G27G15G26G 7G 2G19G13
   7287521.46149   5678588.41844  21639864.3764   21639867.1884
   1726770.88649   1345538.29544  22709033.4504   22709036.4164
   1313566.37249   1023561.66644  23433083.7884   23433087.2754
  -5070951.51549  -3951386.98745  20483745.3864   20483748.0324
   -909452.86049   -708662.84746  20717487.7414   20717490.8734
  11924204.76647   9291585.07044  25232788.7744   25232792.7844
  10854766.92046                  25437871.5934
 98 12  2  2  4  0.0000000  0  7G27G15G26G 7G 2G19G13
   7378648.70749   5749596.64544  21657205.2974   21657207.8844
   1776122.83149   1383994.35944  22718424.8714   22718427.5354
   1352675.03749   1054035.94344  23440525.9214   23440529.0954
  -5095768.57849  -3970724.94345  20479022.6834   20479025.6514
   -905416.50849   -705517.63046  20718255.8404   20718259.0204
  12038171.35847   9380390.14844  25254476.0694   25254482.9604
  10950248.36646                  25456042.0584
 98 12  2  2  4 30.0000000  0  7G27G15G26G 7G 2G19G13
   7470188.02549   5820925.96144  21674624.6124   21674627.4644
   1826043.23749   1422893.38044  22727924.3234   22727927.7344
   1392182.27849   1084820.79644  23448043.8774   23448047.2844
  -5120231.42349  -3989786.88545  20474367.3854   20474370.4384
   -901163.98349   -702203.95846  20719064.9854   20719068.1784
  12152142.83646                  25276164.3934
  11045601.46546                  25474187.3534
 98 12  2  2  5  0.0000000  0  6G27G15G 7G 2G26G19
   7562138.20149   5892575.43544  21692122.1204   21692124.9764
   1876530.10749   1462233.79644  22737531.8244   22737534.4714
  -5144341.56049  -4008573.98945  20469779.3894   20469782.4384
   -896685.98149   -698714.59446  20719917.1304   20719920.2574
   1432077.74049   1115908.15544  23455635.9014   23455639.1184
  12266118.52646   9558011.20944  25297853.1404   25297858.9644
 98 12  2  2  5 30.0000000  0  7G27G 7G 2G15G26G19G 4
   7654495.80449   5964542.39044  21709697.2044   21709700.0264
  -5168089.59149  -4027078.93445  20465260.0864   20465263.1844
   -891957.43849   -695030.00946  20720816.8764   20720820.0104
   1927582.02149   1502014.51944  22747247.0824   22747248.6044
   1472366.59849   1147302.07744  23463302.5534   23463305.5284
  12380095.13146                  25319542.2154
        -0.60158        -0.02854  23958901.9244   23958904.3254
 98 12  2  2  6  0.0000000  0  7G27G 7G 2G15G26G19G 4
   7747238.80249   6036809.64144  21727345.4824   21727348.6294
  -5191453.66549  -4045284.69145  20460814.1644   20460817.3074
   -886952.38649   -691129.96246  20721769.2484   20721772.4404
   1979197.47349   1542234.35944  22757068.9204   22757070.9234
   1513074.68649   1179022.66244  23471049.2614   23471051.5354
  12494090.09846                  25341234.7764
   -112252.55148    -87469.05144  23937540.9254   23937542.7694
 98 12  2  2  6 30.0000000  0  7G27G 7G 2G15G26G19G 4
   7840347.19549   6109361.60644  21745063.1734   21745066.5884
  -5214424.08149  -4063183.70345  20456442.9584   20456446.0674
   -881649.72949   -686998.00946  20722778.3144   20722781.5114
   2031374.78149   1582892.00944  22766997.9514   22767000.3364
   1554224.83349   1211087.70944  23478879.7824   23478881.5004
  12608110.39045                  25362932.3494
   -224459.18148   -174902.76844  23916189.1614   23916189.3454
 98 12  2  2  7  0.0000000  0  7G27G 7G 2G15G26G19G 4
   7933812.63549   6182191.78344  21762849.1334   21762852.5054
  -5236982.76749  -4080761.88645  20452150.1364   20452153.2214
   -876050.28249   -682634.79546  20723844.0754   20723847.2004
   2084111.84449   1623985.83644  22777033.3204   22777036.4554
   1595834.36849   1243510.72544  23486797.9574   23486800.2304
  12722159.57745                  25384635.2374
   -336617.94649   -262299.16444  23894845.7334   23894846.2734
 98 12  2  2  7 30.0000000  0  7G27G 7G 2G15G26G19G 4
   8027629.16249   6255295.53244  21780701.8174   21780704.9934
  -5259138.76649  -4098026.28445  20447933.9264   20447937.0464
   -870161.26949   -678045.94446  20724964.5754   20724967.6584
   2137406.69649   1665514.29544  22787175.0224   22787178.1104
   1637910.10949   1276297.02244  23494804.8774   23494807.1414
  12836236.02845                  25406343.3114
   -448731.70049   -349660.50844  23873511.0294   23873511.5624
 98 12  2  2  8  0.0000000  0  7G27G 7G 2G15G26G19G 4
   8121785.17949   6328663.82544  21798619.4644   21798622.7014
  -5280898.82649  -4114982.15745  20443793.0384   20443796.1364
   -863997.72949   -673243.17146  20726137.4104   20726140.4944
   2191257.56749   1707476.02044  22797422.7394   22797425.8954
   1680438.28349   1309435.85744  23502897.5644   23502900.7694
  12950329.59045                  25428054.5074
   -560796.50449   -436983.69744  23852185.4894   23852186.7954
 98 12  2  2  8 30.0000000  0  7G27G 7G 2G15G26G19G 4
   8216284.64249   6402299.74744  21816602.2504   21816604.6774
  -5302273.71349  -4131637.89645  20439725.6464   20439728.6064
   -857570.75349   -668235.12546  20727360.3314   20727363.4784
   2245662.56949   1749869.53544  22807775.7754   22807778.8284
   1723398.76749   1342911.54744  23511072.7154   23511075.0374
  13064415.03145                  25449765.2714
   -672792.84949   -524253.52044  23830873.4144   23830875.6494
 98 12  2  2  9  0.0000000  0  7G27G 7G 2G15G26G19G 4
   8311141.01949   6476213.78344  21834652.9604   21834655.7914
  -5323274.55449  -4148002.16945  20435729.3084   20435732.2604
   -850885.72149   -663026.00346  20728632.6124   20728635.7184
   2300619.99849   1792693.51144  22818233.9184   22818235.7174
   1766777.71749   1376713.30344  23519327.0784   23519329.7414
  13178480.13845                  25471471.0014
   -784722.17748   -611471.14544  23809573.7644   23809576.6774
 98 12  2  2  9 30.0000000  0  7G27G 7G 2G15G26G19G 4
   8406356.34749   6550407.52344  21852771.9634   21852774.4824
  -5343919.31949  -4164088.97746  20431800.8434   20431803.4314
   -843938.29249   -657612.41546  20729954.6424   20729957.7024
   2356127.92349   1835946.43244  22828796.1694   22828798.5124
   1810556.59949   1410826.73344  23527657.6214   23527660.8384
  13292533.92145                  25493175.5054
   -896579.97448   -698633.02044  23788287.4174   23788290.5904
 98 12  2  2 10  0.0000000  0  6G27G15G26G 7G 2G 4
   8501940.89549   6624888.94644  21870961.2704   21870963.6694
   2412184.55049   1879626.92244  22839463.5294   22839465.7554
   1854729.01349   1445246.78044  23536063.3654   23536066.2114
  -5364198.29949  -4179890.75946  20427942.0034   20427944.5334
   -836718.27349   -651986.41546  20731328.6374   20731331.6904
  -1008349.15848   -785725.84344  23767018.3324   23767021.5324
 98 12  2  2 10 30.0000000  0  6G27G15G26G 4G 7G 2
   8597898.42749   6699661.00744  21889221.4254   21889223.6654
   2468787.98949   1923733.49244  22850234.9174   22850236.7854
   1899291.38649   1479970.69444  23544543.4344   23544546.6094
  -1120036.81048   -872755.12544  23745764.3044   23745767.2294
  -5384116.08949  -4195411.09846  20424151.8904   20424154.3514
   -829225.68749   -646148.02246  20732754.2954   20732757.3014
 98 12  2  2 11  0.0000000  0  6G27G15G26G 4G 7G 2
   8694233.66649   6774727.38244  21907553.1854   21907555.4974
   2525936.21049   1968264.58144  22861110.2654   22861111.2704
   1944240.97349   1514996.34544  23553097.1634   23553099.7424
  -1231649.57248   -959726.03644  23724525.3934   23724530.6414
  -5403682.81149  -4210657.87646  20420428.3924   20420430.9894
   -821467.49449   -640102.66645  20734230.6014   20734233.5334
 98 12  2  2 11 30.0000000  0  6G27G15G26G 4G 7G 2
   8790940.35949   6850083.20244  21925955.8094   21925957.9044
   2583627.05149   2013218.49244  22872088.7074   22872090.3564
   1989579.69149   1550325.21044  23561725.0624   23561727.5034
  -1343179.83349  -1046632.69544  23703301.8194   23703305.6544
  -5422891.86849  -4225625.95546  20416772.9814   20416775.8184
   -813446.02049   -633852.15845  20735757.0494   20735760.0864
 98 12  2  2 12  0.0000000  0  6G27G15G26G 4G 7G 2
   8888013.09149   6925724.27644  21944428.1574   21944430.2014
   2641858.69049   2058593.81244  22883169.5564   22883171.4904
   2035314.33649   1585962.59644  23570428.0734   23570431.3264
  -1454623.28949  -1133471.72044  23682094.9354   23682098.1594
  -5441733.15849  -4240307.46046  20413187.5684   20413190.3804
   -805161.69449   -627396.84145  20737333.4294   20737336.3944
 98 12  2  2 12 30.0000000  0  6G27G15G26G 4G 7G 2
   8985436.65249   7001638.72244  21962966.9824   21962969.6494
   2700629.00249   2104388.86244  22894353.2334   22894355.5814
   2081444.15249   1621907.90644  23579206.3384   23579208.2964
  -1565979.74249  -1220242.95944  23660904.7744   23660907.8404
  -5460219.00249  -4254711.99446  20409669.6124   20409672.4714
   -796619.86149   -620740.86245  20738958.9284   20738961.9674
 98 12  2  2 13  0.0000000  0  6G27G15G26G 4G 7G 2
   9083198.57049   7077816.80944  21981570.4474   21981572.9764
   2759935.87649   2150602.01744  22905638.6274   22905640.4104
   2127981.87449   1658171.07244  23588061.8754   23588063.6274
  -1677235.44549  -1306935.66044  23639733.6554   23639737.5514
  -5478339.51249  -4268831.85046  20406221.4824   20406224.3774
   -787809.78449   -613875.86145  20740635.2844   20740638.2474
 98 12  2  2 13 30.0000000  0  6G27G15G26G 4G 7G 2
   9181277.66149   7154242.05044  22000234.0724   22000237.1434
   2819777.53249   2197231.89244  22917026.0064   22917029.2144
   2174934.43349   1694757.47344  23596996.9214   23596998.8794
  -1788381.88449  -1393543.23944  23618583.1074   23618586.9124
  -5496078.38549  -4282654.32945  20402845.8374   20402848.6264
   -778723.90849   -606795.95245  20742364.3674   20742367.4144
 98 12  2  2 14  0.0000000  0  6G27G15G26G 4G 7G 2
   9279665.45849   7230907.84344  22018956.7764   22018960.5424
   2880151.83749   2244276.81444  22928514.8924   22928517.2564
   2222297.02449   1731663.38744  23606009.7294   23606012.3454
  -1899423.24849  -1480068.95544  23597452.9384   23597457.3404
  -5513435.81749  -4296179.58745  20399542.9564   20399545.5084
   -769369.27949   -599506.62945  20744144.2404   20744147.4464
 98 12  2  2 14 30.0000000  0  6G 7G 2G27G15G26G 4
  -5530411.33549  -4309407.24545  20396312.6394   20396315.1134
   -759748.86149   -592010.19445  20745974.9674   20745978.1834
   9378360.41649   7307812.99044  22037737.7294   22037741.0564
   2941056.85949   2291735.26444  22940104.6204   22940106.8154
   2270071.99549   1768890.64444  23615101.1894   23615103.8014
  -2010361.34249  -1566514.16144  23576341.9504   23576345.3304
 98 12  2  2 15  0.0000000  0  7G 7G 2G27G15G26G 9G 4
  -5546997.74949  -4322331.70645  20393156.3144   20393158.6724
   -749864.80749   -584308.33045  20747855.9904   20747859.1754
   9477373.02749   7384965.65244  22056579.2224   22056582.3884
   3002490.38449   2339605.55044  22951795.7014   22951798.1634
   2318260.79449   1806440.36844  23624271.1224   23624273.9724
        -0.06058         0.94254  24065834.3354   24065835.6894
  -2121202.29849  -1652883.70144  23555249.4494   23555252.2944
 98 12  2  2 15 30.0000000  0  7G 7G 2G27G15G26G 9G 4
  -5563206.74249  -4334962.07645  20390071.7924   20390074.2764
   -739723.09649   -576405.68945  20749785.7424   20749788.9544
   9576721.64249   7462380.13644  22075485.0004   22075488.0644
   3064450.05349   2387885.81944  22963586.2054   22963588.1374
   2366842.41849   1844296.18444  23633515.9734   23633517.5264
    -95563.86048    -74464.31544  24047649.5104   24047651.5074
  -2231951.77049  -1739181.92544  23534174.5974   23534178.0594
 98 12  2  2 16  0.0000000  0  7G 7G 2G27G15G26G 9G 4
  -5579054.80349  -4347311.19845  20387055.8924   20387058.5044
   -729312.19149   -568293.29145  20751766.8734   20751770.0674
   9676414.06249   7540062.52344  22094456.0574   22094458.5304
   3126934.07449   2436574.67744  22975476.5114   22975478.0284
   2415799.81249   1882444.79844  23642832.3184   23642834.5004
   -190902.06148   -148753.79244  24029506.9694   24029508.6114
  -2342603.52949  -1825404.01744  23513118.2284   23513121.1314
 98 12  2  2 16 30.0000000  0  7G 7G 2G27G15G26G 9G 4
  -5594556.77149  -4359390.63745  20384105.9454   20384108.6404
   -718617.11849   -559959.46045  20753802.0614   20753805.2224
   9776456.67549   7618017.77544  22113493.4184   22113496.5854
   3189940.08349   2485670.27344  22987466.4514   22987467.0994
   2465117.72749   1920874.34744  23652217.2434   23652217.6474
   -286021.08348   -222872.46944  24011406.4484   24011409.7334
  -2453146.73549  -1911541.51044  23492082.7534   23492086.8274
 98 12  2  2 17  0.0000000  0  7G 7G 2G27G15G26G 9G 4
  -5609711.43249  -4371199.44545  20381221.9864   20381224.6434
   -707628.79549   -551397.12045  20755893.0564   20755896.1944
   9876853.02249   7696248.66344  22132598.2744   22132601.3764
   3253465.89749   2535170.93344  22999554.6574   22999556.7274
   2514774.87149   1959568.23444  23661666.4774   23661668.1474
   -380907.69348   -296810.07944  23993350.4884   23993352.1244
  -2563582.81949  -1997595.50944  23471067.1854   23471071.3954
 98 12  2  2 17 30.0000000  0  7G 7G 2G27G15G26G 9G 4
  -5624511.05649  -4382731.60445  20378405.6774   20378408.1754
   -696340.79149   -542601.26545  20758041.1724   20758044.3754
   9977585.77749   7774741.69044  22151767.1094   22151769.9044
   3317509.24349   2585074.83644  23011741.8324   23011742.5384
   2564763.83949   1998520.68644  23671179.0234   23671180.4854
   -475546.75948   -370554.78444  23975341.3084   23975343.7404
  -2673901.78749  -2083558.25944  23450074.0264   23450077.7074
 98 12  2  2 18  0.0000000  0  7G 7G 2G27G15G26G 9G 4
  -5638944.87049  -4393978.71645  20375659.1244   20375661.8774
   -684757.39949   -533575.23945  20760245.3064   20760248.5544
  10078644.15449   7853488.45744  22170997.9354   22171000.6824
   3382067.95949   2635380.33544  23024026.7514   23024027.3364
   2615093.67949   2037738.73744  23680756.4084   23680758.6024
   -569948.74148   -444114.75544  23957377.1334   23957379.6914
  -2784094.78949  -2169422.83944  23429104.7714   23429108.0334
 98 12  2  2 18 30.0000000  0  7G 7G 2G27G15G26G 9G 4
  -5652999.59649  -4404930.43845  20372984.6124   20372987.3224
   -672895.54449   -524332.22645  20762502.6914   20762505.8864
  10180036.01749   7932495.08944  22190292.3844   22190294.7424
   3447139.78049   2686085.64844  23036408.9824   23036411.0144
   2665775.51749   2077231.08444  23690400.5434   23690403.0864
   -664107.94648   -517485.55844  23939459.2054   23939462.3524
  -2894172.38649  -2255197.51444  23408157.4724   23408160.6084
 98 12  2  2 19  0.0000000  0  7G 7G 2G27G15G26G 9G 4
  -5666656.89849  -4415572.47945  20370385.6314   20370388.2904
   -660766.80849   -514881.25145  20764810.7694   20764813.9264
  10281751.96049   8011754.26344  22209648.1004   22209650.3164
   3512722.52449   2737189.11444  23048889.2074   23048891.1244
   2716827.77849   2117012.07344  23700115.7104   23700118.7374
   -758024.81348   -590667.50644  23921587.6184   23921590.9764
  -3004130.66549  -2340879.19844  23387233.0294   23387236.5384
 98 12  2  2 19 30.0000000  0  7G 7G 2G27G15G26G 9G 4
  -5679937.44349  -4425920.94345  20367858.4994   20367861.1564
   -648376.79949   -505226.69845  20767168.3654   20767171.5304
  10383778.84449   8091255.73644  22229063.2854   22229065.0974
   3578813.93649   2788688.91944  23061465.9054   23061467.0584
   2768265.11149   2157093.11744  23709904.1264   23709907.3884
   -851706.80448   -663666.43844  23903759.5244   23903762.6204
  -3113950.27549  -2426452.84344  23366334.9094   23366339.0274
 98 12  2  2 20  0.0000000  0  7G 7G 2G27G15G26G 9G 4
  -5692854.53349  -4435986.19745  20365400.3784   20365403.2024
   -635722.85749   -495366.48645  20769576.4374   20769579.5834
  10486121.76749   8171003.46344  22248538.4854   22248541.1274
   3645411.93749   2840583.46744  23074139.1744   23074140.0744
   2820082.68549   2197470.44844  23719764.6694   23719767.7464
   -945157.92348   -736485.50344  23885976.5814   23885979.7504
  -3223627.85049  -2511915.80844  23345463.8714   23345467.1844
 98 12  2  2 20 30.0000000  0  7G 7G 2G27G15G26G 9G 4
  -5705410.30249  -4445769.90145  20363011.0594   20363013.9224
   -622787.94849   -485287.33545  20772037.9314   20772041.1034
  10588772.64949   8250991.13944  22268071.8304   22268073.9794
   3712514.56149   2892871.21944  23086908.6174   23086911.1884
   2872276.10849   2238140.64744  23729697.0564   23729700.3624
  -1038359.52448   -809110.07144  23868240.9124   23868243.8814
  -3333164.03249  -2597268.59244  23324620.0324   23324624.3194
 98 12  2  2 21  0.0000000  0  7G 7G 2G27G15G26G 9G 4
  -5717611.93249  -4455277.65145  20360689.1054   20360691.7104
   -609557.66349   -474978.01845  20774555.2984   20774558.4834
  10691711.43149   8331203.13744  22287660.4404   22287662.8954
   3780119.20249   2945550.19444  23099773.0954   23099775.7424
   2924834.23749   2279095.03744  23739698.6944   23739702.0034
  -1131315.59748   -881543.34544  23850551.4884   23850555.5494
  -3442550.79549  -2682504.95544  23303804.4674   23303807.6424
 98 12  2  2 21 30.0000000  0  7G 7G 2G27G15G26G 9G 4
  -5729466.44449  -4464514.91845  20358433.2684   20358436.2644
   -596024.09949   -464432.37945  20777130.8624   20777133.8404
  10794947.01949   8411646.41744  22307305.8504   22307308.3714
   3848223.39849   2998618.40644  23112732.9134   23112735.1344
   2977755.00649   2320331.98844  23749769.2264   23749772.3734
  -1224024.92048   -953784.33444  23832909.6854   23832912.7354
  -3551788.85149  -2767625.43544  23283017.2284   23283019.8774
 98 12  2  2 22  0.0000000  0  7G 7G 2G27G15G26G 9G 4
  -5740949.23249  -4473462.53045  20356248.0884   20356251.0174
   -582181.16349   -453645.67445  20779765.1374   20779768.1804
  10898484.24249   8492324.73944  22327008.2844   22327010.9244
   3916824.80549   3052074.04844  23125787.2034   23125789.3804
   3031031.29149   2361845.97944  23759907.0954   23759910.5394
  -1316488.80048  -1025834.08644  23815314.3054   23815319.0074
  -3660896.55049  -2852644.36044  23262254.9364   23262258.1964
 98 12  2  2 22 30.0000000  0  7G 7G 2G27G15G26G 9G 4
  -5752064.02049  -4482123.39045  20354132.9554   20354135.8334
   -568033.34149   -442621.39345  20782457.2364   20782460.3584
  11002317.42049   8573233.68144  22346767.1944   22346769.5334
   3985920.87349   3105915.14644  23138935.2104   23138938.6374
   3084665.39549   2403638.78844  23770113.2964   23770115.8744
  -1408709.06449  -1097693.96144  23797765.5264   23797768.6294
  -3769870.06849  -2937558.72644  23241517.8354   23241520.1604
 98 12  2  2 23  0.0000000  0  7G 7G 2G27G15G26G 9G 4
  -5762825.27749  -4490508.77445  20352085.0444   20352087.8244
   -553593.45249   -431369.53445  20785205.1364   20785208.2914
  11106445.10649   8654372.10244  22366582.1064   22366585.0484
   4055509.62349   3160140.15044  23152177.8094   23152180.1924
   3138651.69349   2445706.03444  23780386.3244   23780388.8904
  -1500690.25749  -1169367.56044  23780261.8444   23780262.2724
  -3878693.39549  -3022356.06944  23220809.7294   23220812.6294
 98 12  2  2 23 30.0000000  0  7G 7G 2G27G15G26G 9G 4
  -5773235.94049  -4498620.97045  20350103.9024   20350106.5554
   -538862.60349   -419890.95245  20788008.4474   20788011.6074
  11210869.19049   8735741.48844  22386453.2634   22386456.0944
   4125588.58449   3214747.12544  23165513.0264   23165515.9774
   3192982.15549   2488041.46344  23790724.6514   23790727.6804
  -1592423.14049  -1240847.66144  23762805.8424   23762809.0024
  -3987357.58749  -3107029.41344  23200131.3964   23200134.5734
 98 12  2  2 24  0.0000000  0  7G 7G 2G27G15G26G 9G 4
  -5783296.55749  -4506460.40346  20348189.5184   20348192.2524
   -523834.37949   -408180.64945  20790868.1164   20790871.1874
  11315572.40349   8817328.39344  22406377.7044   22406380.7424
   4196155.19948   3269734.10544  23178941.1814   23178943.4504
   3247633.18149   2530626.66944  23801124.2024   23801127.4524
  -1683895.78049  -1312125.00344  23745398.9514   23745400.0614
  -4095858.76949  -3191575.75844  23179484.2484   23179486.4734
 98 12  2  2 24 30.0000000  0  7G 7G 2G27G15G26G 9G 4
  -5793016.34749  -4514034.25346  20346340.0584   20346342.5234
   -508513.97449   -396242.66745  20793783.4254   20793786.3924
  11420554.77249   8899132.82444  22426355.0584   22426357.8154
   4267207.26049   3325099.35244  23192462.4384   23192464.7254
   3302598.16749   2573456.53244  23811583.7544   23811586.7504
  -1775104.40449  -1383196.58944  23728042.7934   23728046.3324
  -4204168.25149  -3275972.72244  23158873.2264   23158875.9624
 98 12  2  2 25  0.0000000  0  7G 7G 2G27G15G26G 9G 4
  -5802385.45149  -4521334.84146  20344557.2704   20344559.9874
   -492897.32349   -384073.84545  20796755.1594   20796758.2264
  11525821.07749   8981158.50144  22446386.4684   22446388.9374
   4338742.31848   3380840.94244  23206075.0194   23206076.5854
   3357873.54049   2616528.23544  23822102.6044   23822105.8224
  -1866046.18349  -1454060.21744  23710736.8824   23710740.2204
  -4312291.05049  -3360224.21044  23138298.1074   23138301.7044
 98 12  2  2 25 30.0000000  0  7G 7G 2G27G15G26G 9G 4
  -5811385.30049  -4528347.69546  20342844.6724   20342847.0844
   -476980.28949   -371670.95645  20799783.9834   20799787.1284
  11631373.66749   9063407.26544  22466472.4394   22466475.3644
   4410757.85649   3436956.92244  23219779.5874   23219780.9154
   3413470.33949   2659850.41144  23832682.4774   23832685.7394
  -1956724.14849  -1524718.32344  23693481.3804   23693484.3504
  -4420242.37749  -3444342.10144  23117755.7984   23117759.0044
 98 12  2  2 26  0.0000000  0  7G 7G 2G27G15G26G 9G 4
  -5820012.14749  -4535069.90046  20341203.0824   20341205.3404
   -460776.38849   -359044.53845  20802867.4634   20802870.5734
  11737215.13249   9145881.11644  22486613.4314   22486616.7624
   4483251.72049   3493445.65544  23233574.6594   23233574.9174
   3469392.86349   2703426.40744  23843324.6094   23843327.6454
  -2047137.28449  -1595170.05144  23676276.2144   23676280.2464
  -4528016.79749  -3528322.14644  23097246.6744   23097248.8214
 98 12  2  2 26 30.0000000  0  7G 7G 2G27G15G26G 9G 4
  -5828275.82149  -4541509.11446  20339630.3874   20339632.8654
   -444300.83249   -346206.43945  20806002.6554   20806005.6734
  11843351.82449   9228585.01044  22506810.5354   22506813.6514
   4556221.41049   3550305.14544  23247460.3314   23247461.6524
   3525652.69549   2747265.23944  23854030.5814   23854033.3764
  -2137286.37649  -1665416.04544  23659121.5024   23659123.7124
  -4635620.18649  -3612168.90544  23076770.3624   23076772.8004
 98 12  2  2 27  0.0000000  0  7G 7G 2G27G15G26G 9G 4
  -5836181.17449  -4547669.11746  20338125.9684   20338128.4684
   -427551.92149   -333155.33545  20809189.9454   20809192.8654
  11949770.78149   9311508.84044  22527061.4164   22527064.5974
   4629664.20948   3607533.30444  23261435.8604   23261436.9874
   3582252.86649   2791369.26144  23864800.8554   23864804.0124
  -2227164.25549  -1735450.70944  23642018.2504   23642020.1534
  -4743075.36649  -3695900.18244  23056322.2724   23056325.5004
 98 12  2  2 27 30.0000000  0  7G 7G 2G27G15G26G 9G 4
  -5843729.90649  -4553551.23346  20336689.4524   20336691.8284
   -410534.12249   -319894.70645  20812428.3344   20812431.2094
  12056449.26249   9394634.88844  22547361.5264   22547364.7774
   4703577.70948   3665128.22844  23275500.7614   23275502.9884
   3639189.52849   2835735.51344  23875635.4454   23875637.4114
  -2316763.17749  -1805267.99844  23624968.0684   23624970.5904
  -4850368.99649  -3779505.57344  23035904.9984   23035908.0434
 98 12  2  2 28  0.0000000  0  7G 7G 2G27G15G26G 9G 4
  -5850938.11449  -4559168.00746  20335317.5134   20335320.0704
   -393243.63849   -306421.59745  20815718.5104   20815721.5044
  12163386.00949   9477962.17844  22567710.6854   22567714.1774
   4777959.43748   3723088.02144  23289654.9684   23289657.7234
   3696454.24549   2880357.35844  23886532.4644   23886535.0544
  -2406074.60049  -1874861.26244  23607972.8204   23607974.7384
  -4957491.28949  -3862977.46544  23015520.2244   23015522.7234
 98 12  2  2 28 30.0000000  0  7G 7G 2G27G15G26G 9G 4
  -5857807.25949  -4564520.57746  20334010.4034   20334012.9624
   -375661.80949   -292721.46745  20819064.3114   20819067.3794
  12270581.59949   9561491.18144  22588109.3524   22588113.4224
   4852806.99148   3781410.77344  23303898.0814   23303901.2724
   3754061.09649   2925245.82344  23897494.6914   23897497.3954
  -2495108.79749  -1944238.52144  23591030.2594   23591032.6704
  -5064443.07849  -3946316.47744  22995168.3934   22995171.5894
 98 12  2  2 29  0.0000000  0  7G 7G 2G27G15G26G 9G 4
  -5864325.65049  -4569599.83346  20332770.0164   20332772.7454
   -357776.97449   -278785.22945  20822467.6504   20822470.7914
  12378028.95849   9645216.35544  22608556.0984   22608559.4664
   4928117.82349   3840094.54744  23318229.7734   23318231.7844
   3812010.67749   2970401.35444  23908521.9514   23908524.8174
  -2583861.59649  -2013396.50744  23574141.1014   23574143.9274
  -5171208.73649  -4029510.46044  22974851.6244   22974854.7454
 98 12  2  2 29 30.0000000  0  7G 7G 2G27G15G26G 9G 4
  -5870491.00349  -4574403.99346  20331596.9004   20331599.6124
   -339582.31249   -264607.56445  20825929.9244   20825933.0034
  12485737.44349   9729145.02144  22629052.8424   22629056.0044
   5003889.64149   3899137.51044  23332648.5734   23332651.6374
   3870300.36949   3015821.90244  23919614.1314   23919615.9224
  -2672322.05549  -2082326.69644  23557307.6114   23557310.7754
  -5277778.82249  -4112552.04244  22954571.9554   22954575.0844
 98 12  2  2 30  0.0000000  0  7G 7G 2G27G15G26G 9G 4
  -5876308.95349  -4578937.45046  20330489.8684   20330492.4034
   -321068.88849   -250181.51345  20829452.8004   20829455.9344
  12593727.61449   9813293.18544  22649602.8674   22649605.6744
   5080119.54249   3958537.42244  23347154.6344   23347157.7694
   3928924.60949   3061503.14244  23930770.2274   23930771.6754
  -2760497.07449  -2151034.48444  23540528.2754   23540531.0634
  -5384163.13249  -4195448.86844  22934327.8074   22934330.8514
 98 12  2  2 30 30.0000000  0  7G 7G 2G27G15G26G 9G 4
  -5881770.33449  -4583193.06146  20329450.6924   20329453.3354
   -302243.44349   -235512.32845  20833035.2964   20833038.3934
  12701979.88549   9897645.59144  22670202.8424   22670205.2694
   5156804.88549   4018292.23544  23361747.6714   23361750.1404
   3987869.33349   3107434.09344  23941986.8604   23941989.1694
  -2848375.13649  -2219510.86444  23523805.4444   23523808.6164
  -5490365.30549  -4278203.76844  22914118.0944   22914121.2844
 98 12  2  2 31  0.0000000  0  7G 7G 2G27G15G26G 9G 4
  -5886877.70349  -4587172.81846  20328478.8654   20328481.4344
   -283111.75049   -220604.50945  20836676.1704   20836679.0574
  12810481.42049   9982192.23144  22690850.0574   22690852.8974
   5233943.10849   4078399.95244  23376426.4384   23376429.2454
   4047096.59649   3153585.20344  23953257.8354   23953259.2924
  -2935937.73449  -2287741.44644  23507142.7724   23507145.6834
  -5596388.99049  -4360819.58844  22893942.4144   22893945.5864
 98 12  2  2 31 30.0000000  0  7G 7G 2G27G15G26G 9G 4
  -5891642.81849  -4590885.88546  20327572.0404   20327574.4424
   -263672.45849   -205457.00145  20840375.2214   20840378.2604
  12919231.74349  10066932.72544  22711544.2374   22711547.2794
   5311531.79549   4138858.67644  23391191.0454   23391193.7644
   4106596.59349   3199948.85044  23964580.4734   23964582.8144
  -3023193.96049  -2355733.29144  23490538.4694   23490541.5444
  -5702230.45349  -4443293.42144  22873801.6224   22873804.4264
 98 12  2  2 32  0.0000000  0  7G 7G 2G27G15G26G 9G 4
  -5896061.66049  -4594329.13046  20326731.2304   20326733.5954
   -243932.79849   -190075.44245  20844131.3624   20844134.5294
  13028227.23449  10151864.25944  22732285.2544   22732288.4454
   5389568.57949   4199666.55644  23406041.1764   23406043.3614
   4166368.72349   3246524.52944  23975954.6084   23975957.4944
  -3110154.62849  -2423494.83244  23473990.4954   23473992.8074
  -5807868.25149  -4525608.56044  22853699.6704   22853701.7964
 98 12  2  2 32 30.0000000  0  7G 7G 2G27G15G26G 9G 4
  -5900133.01649  -4597501.60446  20325956.5484   20325958.9294
   -223897.23149   -174463.30745  20847943.9834   20847947.0864
  13137459.08949  10236979.96344  22753071.4244   22753074.5324
   5468050.79549   4260821.54844  23420975.4474   23420978.7154
   4226412.69649   3293312.03244  23987380.1584   23987382.9974
  -3196808.42349  -2491017.25444  23457501.1164   23457503.5374
  -5913289.19249  -4607754.72044  22833638.7004   22833641.0444
 98 12  2  2 33  0.0000000  0  7G 7G 2G27G15G26G 9G 4
  -5903867.05749  -4600411.23746  20325245.8534   20325248.1794
   -203552.39349   -158610.17945  20851815.4564   20851818.5784
  13246931.89149  10322283.42044  22773903.5324   22773906.6914
   5546975.64249   4322321.41644  23435994.4064   23435997.2344
   4286738.71449   3340319.30844  23998859.6554   23998862.6264
  -3283173.12949  -2558314.42244  23441066.2574   23441068.6174
  -6018481.97049  -4689723.09544  22813621.0054   22813623.5314
 98 12  2  2 33 30.0000000  0  7G 7G 2G27G15G26G 9G 4
  -5907262.38649  -4603056.93746  20324599.7364   20324602.4064
   -182896.30749   -142514.52145  20855746.2764   20855749.3574
  13356647.11249  10407775.77844  22794781.5824   22794784.3734
   5626340.49649   4384164.16044  23451097.2754   23451099.4684
   4347376.58249   3387569.59544  24010398.5884   24010402.7874
  -3369247.51849  -2625385.35444  23424686.7384   23424688.6934
  -6123438.85049  -4771507.64344  22793648.2834   22793651.3554
 98 12  2  2 34  0.0000000  0  7G 7G 2G27G15G26G 9G 4
  -5910315.47549  -4605435.95446  20324018.6314   20324021.3344
   -161933.72549   -126180.03345  20859735.2074   20859738.3364
  13466592.59749  10493447.54944  22815703.6414   22815706.2144
   5706142.85649   4446347.83344  23466283.0844   23466285.7304
   4408321.22549   3435058.92444  24021995.8584   24022000.4594
  -3455020.62749  -2692221.54144  23408364.6124   23408367.1634
  -6228170.65649  -4853116.80744  22773718.3434   22773720.9724
 98 12  2  2 34 30.0000000  0  7G 7G 2G27G15G26G 9G 4
  -5913036.85349  -4607556.49546  20323500.8004   20323503.4324
   -140661.75149   -109604.46545  20863783.1004   20863786.1244
  13576751.40249  10579285.54444  22836666.2484   22836669.4074
   5786379.68749   4508870.03044  23481551.3204   23481553.6864
   4469562.67049   3482779.51444  24033649.7714   24033654.4274
  -3540488.55049  -2758819.91544  23392100.5274   23392103.3734
  -6332696.36549  -4934565.37644  22753827.7584   22753830.7264
 98 12  2  2 35  0.0000000  0  7G 7G 2G27G15G26G 9G 4
  -5915427.89749  -4609419.63346  20323045.8304   20323048.3724
   -119082.35849    -92789.34145  20867889.5314   20867892.4254
  13687125.07949  10665290.97344  22857669.4134   22857672.4774
   5867048.73049   4571729.02344  23496902.2374   23496903.6374
   4531100.59448   3530731.14144  24045359.8754   24045363.1704
  -3625655.86949  -2825184.03544  23375893.6584   23375896.2944
  -6437014.57549  -5015852.26644  22733976.5394   22733979.6474
 98 12  2  2 35 30.0000000  0  7G 7G 2G27G15G26G 9G 4
  -5917487.19949  -4611024.27246  20322654.0214   20322656.6254
    -97211.25249    -75746.91445  20872051.4434   20872054.4834
  13797724.42049  10751472.23844  22878715.7634   22878718.8164
   5948147.33649   4634922.72344  23512334.7934   23512337.6164
   4592923.32948   3578904.68244  24057124.1804   24057128.3134
  -3710504.67849  -2891299.99244  23359747.6894   23359749.5714
  -6541118.05549  -5096971.81844  22714166.2044   22714169.1264
 98 12  2  2 36  0.0000000  0  7G 7G 2G27G15G26G 9G 4
  -5919216.73749  -4612371.95146  20322324.7474   20322327.2284
    -75059.14649    -58485.52545  20876267.1794   20876270.0974
  13908553.90149  10837832.83744  22899805.7084   22899808.8814
   6029672.76248   4698449.04044  23527848.3624   23527853.3024
   4655011.23349   3627284.87244  24068939.1234   24068942.8104
  -3795034.08049  -2957167.03844  23343662.0334   23343664.9184
  -6644999.27549  -5177918.18144  22694398.0154   22694401.4444
 98 12  2  2 36 30.0000000  0  7G 7G 2G27G15G26G 9G 4
  -5920620.11449  -4613465.47946  20322057.7564   20322060.1614
    -52619.06849    -40999.74945  20880537.4044   20880540.2974
  14019631.11949  10924386.48044  22920943.1214   22920946.5374
   6111622.42748   4762305.92444  23543443.0194   23543444.7084
   4717372.22149   3675877.85144  24080806.6634   24080809.7794
  -3879236.72249  -3022779.47244  23327638.8164   23327641.7724
  -6748644.63149  -5258680.75744  22674675.0784   22674678.1494
 98 12  2  2 37  0.0000000  0  7G 7G 2G27G15G26G 9G 4
  -5921699.49449  -4614306.54246  20321852.4144   20321854.8364
    -29892.07149    -23290.39645  20884862.2934   20884865.0044
  14130957.83649  11011134.54844  22942127.8684   22942131.7434
   6193993.64948   4826491.29944  23559117.8104   23559119.6564
   4780004.31549   3724682.08744  24092725.1414   24092728.3634
  -3963101.72149  -3088128.79944  23311679.6064   23311682.5584
  -6852041.19249  -5339249.46644  22654999.3354   22655002.4844
 98 12  2  2 37 30.0000000  0  7G 7G 2G27G15G26G 9G 4
  -5922448.70949  -4614890.33346  20321709.8374   20321712.4394
     -6875.74949     -5355.59845  20889241.9974   20889244.9694
  14242515.49649  11098062.56044  22963356.8114   22963360.0004
   6276783.66448   4891003.02244  23574871.8014   23574875.0174
   4842898.40949   3773690.46144  24104693.6924   24104696.4964
  -4046628.24249  -3153214.38644  23295784.9184   23295787.7554
  -6955185.90549  -5419621.93844  22635371.7864   22635374.8274
 98 12  2  2 38  0.0000000  0  7G 7G 2G27G15G26G 9G 4
  -5922851.46949  -4615204.15946  20321633.1654   20321635.5184
     16447.05149     12818.00945  20893680.1334   20893683.1164
  14354293.85249  11185162.55144  22984627.6684   22984630.7544
   6359989.82548   4955838.96044  23590705.2914   23590707.7694
   4906056.61149   3822904.63344  24116713.1734   24116715.4604
  -4129827.48949  -3218044.94544  23279952.4124   23279955.5974
  -7058088.60049  -5499805.81944  22615789.9194   22615793.0094
 98 12  2  2 38 30.0000000  0  7G 7G 2G27G15G26G 9G 4
  -5922903.57549  -4615244.74846  20321622.9084   20321625.1874
     40090.65849     31241.59545  20898179.4284   20898182.4804
  14466277.41849  11272422.43244  23005937.6084   23005940.3154
   6443609.35147   5020997.05544  23606617.9534   23606620.4534
   4969475.16749   3872321.69644  24128781.6614   24128784.5204
  -4212705.48649  -3282625.17644  23264181.4144   23264184.2614
  -7160752.76549  -5579803.83744  22596253.5804   22596256.2814
 98 12  2  2 39  0.0000000  0  7G 7G 2G27G15G26G 9G 4
  -5922589.32549  -4614999.86445  20321682.6794   20321685.2384
     64052.07749     49912.82845  20902739.2314   20902742.1584
  14578449.56049  11359829.27444  23027283.5094   23027286.5354
   6527639.70747   5086475.22744  23622608.3004   23622612.7364
   5033140.74049   3921931.21344  24140896.7604   24140898.3064
  -4295268.53249  -3346959.99044  23248470.2674   23248472.9954
  -7263174.82549  -5659613.19144  22576763.1854   22576766.2664
 98 12  2  2 39 30.0000000  0  7G 7G 2G27G15G26G 9G 4
  -5921900.64049  -4614463.21445  20321813.9594   20321816.2954
     88346.57449     68843.60745  20907362.4324   20907365.4204
  14690823.98749  11447393.73244  23048667.3494   23048670.4194
   6612078.14747   5152271.39344  23638676.0034   23638680.1054
   5097058.65749   3971737.38244  24153059.6894   24153061.2664
  -4377518.23949  -3411050.64644  23232818.5194   23232821.5914
  -7365360.24649  -5739238.15844  22557318.0764   22557321.2404
 98 12  2  2 40  0.0000000  0  7G 7G 2G27G15G26G 9G 4
  -5920849.90349  -4613644.45045  20322013.8824   20322016.2474
    112975.79949     88035.21345  20912049.2404   20912052.2594
  14803414.55149  11535126.61044  23070092.4074   23070095.5644
   6696921.69847   5218383.25644  23654820.4054   23654825.5574
   5161239.70549   4021748.60144  24165272.5234   24165275.8074
  -4459435.89049  -3474882.55644  23217230.1794   23217233.2344
  -7467311.75149  -5818680.84044  22537917.1854   22537919.8204
 98 12  2  2 40 30.0000000  0  7G 7G 2G27G15G26G 9G 4
  -5919458.92349  -4612560.56345  20322278.5814   20322281.1494
    137931.39549    107481.13145  20916798.1404   20916800.9544
  14916221.92049  11623028.42644  23091559.1254   23091562.4304
   6782167.66947   5284808.67244  23671042.7194   23671046.1664
   5225687.63548   4071967.75444  24177535.9154   24177538.0484
  -4541006.15749  -3538443.76744  23201708.0934   23201710.4094
  -7569015.26649  -5897930.28644  22518563.6574   22518566.5574
 98 12  2  2 41  0.0000000  0  7G 7G 2G27G15G26G 9G 4
  -5917741.13449  -4611222.01845  20322605.3844   20322607.9864
    163209.38549    127178.25845  20921608.3874   20921610.9454
  15029256.24949  11711107.09844  23113068.6054   23113071.6544
   6867813.23946   5351545.49944  23687340.0714   23687344.8164
   5290407.08148   4122398.48444  24189851.7764   24189853.4834
  -4622215.61149  -3601723.82244  23186254.6194   23186256.6554
  -7670472.09049  -5976987.49944  22499257.0544   22499260.0084
 98 12  2  2 41 30.0000000  0  7G 7G 2G27G15G26G 9G 4
  -5915714.03149  -4609642.44845  20322991.2864   20322993.6984
    188800.79949    147119.61545  20926478.1544   20926480.4454
  15142524.51349  11799368.06544  23134622.8664   23134626.0754
   6953855.59146   5418591.47744  23703712.8664   23703715.8044
   5355395.31148   4173038.62744  24202217.9684   24202219.4184
  -4703055.56149  -3664715.96044  23170871.2244   23170874.3114
  -7771685.12949  -6055854.75644  22479996.9444   22479999.8594
